Another Hard Day at the Office Weather Stats

 
 
 

High monthly outside Temperature, 22.8 , C
Low monthly outside Temperature, -1.0 , C
High yearly outside Temperature, 30.9 , C
Low yearly outside Temperature, -2.2 , C

Low monthly barometer, 1001.1 , mb
High monthly barometer, 1028.0 , mb
Low yearly barometer, 975.0 , mb
High yearly barometer 1041.1 , mb

High wind speed, 25.0 , mph
Time of High wind speed, 21:37 , mph
High monthly wind speed, 47.0 , mph
High yearly wind speed, 55.0 , mph

 

 




3126
                    Temp     Hi    Low   Out    Dew  Wind  Wind   Wind    Hi    Hi   Wind   Heat    THW                Rain    Heat    Cool    In     In    In     In     In   In Air  Wind  Wind    ISS   Arc.
  Date    Time     Out   Temp   Temp   Hum    Pt. Speed   Dir    Run Speed   Dir  Chill  Index  Index   Bar    Rain  Rate    D-D     D-D    Temp   Hum    Dew   Heat    EMC Density  Samp   Tx   Recept  Int.
---------------------------------------------------------------------------------------------------------------------------------------------------------------------------------------------------------------
16/08/17   0:05   15.6   15.6   15.6    89   13.7   0.0     W   0.00   2.0     W   15.6   15.7   15.7  1018.9  0.00  0.00   0.010   0.000   26.2    52   15.6   26.4   9.47  .0728    114    1    100.0    5 
16/08/17   0:10   15.5   15.6   15.5    89   13.7   0.0   ---   0.00   0.0   ---   15.5   15.7   15.7  1018.9  0.00  0.00   0.010   0.000   26.2    52   15.6   26.4   9.47  .0728    117    1    100.0    5 
16/08/17   0:15   15.4   15.5   15.4    89   13.6   0.0   ---   0.00   0.0   ---   15.4   15.6   15.6  1019.0  0.00  0.00   0.010   0.000   26.2    52   15.5   26.4   9.47  .0728    117    1    100.0    5 
16/08/17   0:20   15.4   15.4   15.4    89   13.6   0.0   ---   0.00   0.0   ---   15.4   15.5   15.5  1019.0  0.00  0.00   0.010   0.000   26.2    52   15.5   26.4   9.47  .0728    117    1    100.0    5 
16/08/17   0:25   15.3   15.4   15.3    89   13.5   0.0   ---   0.00   0.0   ---   15.3   15.4   15.4  1019.0  0.00  0.00   0.010   0.000   26.2    52   15.5   26.4   9.47  .0728    117    1    100.0    5 
16/08/17   0:30   15.3   15.3   15.3    89   13.5   0.0   ---   0.00   0.0   ---   15.3   15.4   15.4  1019.0  0.00  0.00   0.011   0.000   26.1    52   15.4   26.2   9.47  .0728    117    1    100.0    5 
16/08/17   0:35   15.3   15.3   15.3    89   13.5   1.0     W   0.08   3.0     W   15.3   15.4   15.4  1019.1  0.00  0.00   0.011   0.000   26.1    52   15.4   26.2   9.47  .0728    117    1    100.0    5 
16/08/17   0:40   15.2   15.3   15.2    89   13.4   1.0     W   0.08   3.0     W   15.2   15.3   15.3  1019.1  0.00  0.00   0.011   0.000   25.9    52   15.3   26.1   9.48  .0729    117    1    100.0    5 
16/08/17   0:45   15.2   15.2   15.2    89   13.4   1.0     W   0.08   3.0     W   15.2   15.3   15.3  1019.1  0.00  0.00   0.011   0.000   25.9    52   15.3   26.1   9.48  .0729    117    1    100.0    5 
16/08/17   0:50   15.1   15.2   15.1    89   13.3   1.0     W   0.08   3.0     W   15.1   15.2   15.2  1019.1  0.00  0.00   0.011   0.000   25.8    52   15.2   25.9   9.48  .0729    117    1    100.0    5 
16/08/17   0:55   15.1   15.1   15.1    90   13.4   2.0     W   0.17   3.0     W   15.1   15.2   15.2  1019.1  0.00  0.00   0.011   0.000   25.7    52   15.1   25.8   9.48  .0729    117    1    100.0    5 
16/08/17   1:00   15.1   15.1   15.1    90   13.4   2.0     W   0.17   4.0     W   15.1   15.2   15.2  1019.2  0.00  0.00   0.011   0.000   25.7    52   15.1   25.8   9.49  .0730    116    1    100.0    5 
16/08/17   1:05   15.1   15.1   15.1    90   13.4   2.0     W   0.17   4.0     W   15.1   15.2   15.2  1019.1  0.00  0.00   0.011   0.000   25.6    52   15.0   25.7   9.49  .0730    118    1    100.0    5 
16/08/17   1:10   15.1   15.1   15.0    90   13.4   3.0     W   0.25   4.0     W   15.1   15.2   15.2  1019.1  0.00  0.00   0.011   0.000   25.6    52   15.0   25.7   9.49  .0730    117    1    100.0    5 
16/08/17   1:15   15.0   15.1   15.0    90   13.4   1.0     W   0.08   4.0     W   15.0   15.1   15.1  1019.1  0.00  0.00   0.012   0.000   25.5    52   14.9   25.6   9.49  .0730    117    1    100.0    5 
16/08/17   1:20   14.9   15.0   14.9    90   13.3   1.0     W   0.08   4.0     W   14.9   15.1   15.1  1019.0  0.00  0.00   0.012   0.000   25.4    52   14.8   25.4   9.50  .0730    117    1    100.0    5 
16/08/17   1:25   14.9   15.0   14.9    90   13.3   0.0     W   0.00   2.0     W   14.9   15.1   15.1  1018.9  0.00  0.00   0.012   0.000   25.3    52   14.8   25.4   9.50  .0731    116    1    100.0    5 
16/08/17   1:30   14.9   14.9   14.9    90   13.3   0.0     W   0.00   1.0     W   14.9   15.0   15.0  1019.0  0.00  0.00   0.012   0.000   25.2    52   14.7   25.3   9.50  .0731    116    1    100.0    5 
16/08/17   1:35   14.8   14.9   14.8    89   13.0   0.0   ---   0.00   0.0   ---   14.8   14.8   14.8  1019.0  0.00  0.00   0.012   0.000   25.1    52   14.6   25.1   9.51  .0731    117    1    100.0    5 
16/08/17   1:40   14.7   14.8   14.7    90   13.1   0.0   ---   0.00   0.0   ---   14.7   14.8   14.8  1019.0  0.00  0.00   0.013   0.000   25.0    52   14.5   25.0   9.51  .0732    116    1    100.0    5 
16/08/17   1:45   14.6   14.7   14.6    90   13.0   0.0   ---   0.00   0.0   ---   14.6   14.7   14.7  1018.9  0.00  0.00   0.013   0.000   24.9    52   14.4   24.9   9.51  .0732    117    1    100.0    5 
16/08/17   1:50   14.5   14.6   14.5    89   12.7   0.0     W   0.00   2.0     W   14.5   14.6   14.6  1018.9  0.00  0.00   0.013   0.000   24.8    52   14.3   24.8   9.52  .0732    116    1    100.0    5 
16/08/17   1:55   14.4   14.5   14.4    90   12.8   0.0     W   0.00   2.0     W   14.4   14.5   14.5  1018.9  0.00  0.00   0.014   0.000   24.7    53   14.4   24.7   9.65  .0732    117    1    100.0    5 
16/08/17   2:00   14.4   14.4   14.4    90   12.8   0.0   ---   0.00   0.0   ---   14.4   14.4   14.4  1018.9  0.00  0.00   0.014   0.000   24.6    53   14.3   24.7   9.65  .0733    117    1    100.0    5 
16/08/17   2:05   14.3   14.4   14.3    90   12.7   0.0   ---   0.00   0.0   ---   14.3   14.4   14.4  1018.9  0.00  0.00   0.014   0.000   24.4    53   14.2   24.6   9.65  .0733    117    1    100.0    5 
16/08/17   2:10   14.3   14.3   14.3    90   12.7   0.0   ---   0.00   0.0   ---   14.3   14.3   14.3  1019.0  0.00  0.00   0.014   0.000   24.3    53   14.1   24.4   9.65  .0734    116    1    100.0    5 
16/08/17   2:15   14.2   14.3   14.2    90   12.6   0.0   ---   0.00   0.0   ---   14.2   14.3   14.3  1019.0  0.00  0.00   0.014   0.000   24.3    53   14.1   24.4   9.65  .0734    117    1    100.0    5 
16/08/17   2:20   14.2   14.3   14.2    90   12.5   0.0   ---   0.00   0.0   ---   14.2   14.2   14.2  1019.0  0.00  0.00   0.014   0.000   24.2    53   14.0   24.3   9.65  .0734    116    1    100.0    5 
16/08/17   2:25   14.1   14.2   14.1    90   12.4   0.0   ---   0.00   0.0   ---   14.1   14.1   14.1  1018.9  0.00  0.00   0.015   0.000   24.1    53   13.9   24.2   9.65  .0734    116    1    100.0    5 
16/08/17   2:30   13.9   14.1   13.9    90   12.3   0.0   ---   0.00   0.0   ---   13.9   14.0   14.0  1018.9  0.00  0.00   0.015   0.000   24.0    53   13.8   24.2   9.65  .0735    116    1    100.0    5 
16/08/17   2:35   13.9   13.9   13.9    90   12.3   0.0   ---   0.00   0.0   ---   13.9   13.9   13.9  1019.0  0.00  0.00   0.015   0.000   23.9    53   13.7   24.1   9.65  .0735    117    1    100.0    5 
16/08/17   2:40   13.8   13.9   13.8    90   12.2   0.0   ---   0.00   0.0   ---   13.8   13.9   13.9  1019.0  0.00  0.00   0.016   0.000   23.9    54   14.0   24.1   9.85  .0735    116    1    100.0    5 
16/08/17   2:45   13.8   13.8   13.8    91   12.3   0.0   ---   0.00   0.0   ---   13.8   13.8   13.8  1019.0  0.00  0.00   0.016   0.000   23.9    54   14.0   24.1   9.85  .0735    116    1    100.0    5 
16/08/17   2:50   13.7   13.8   13.7    91   12.3   0.0   ---   0.00   0.0   ---   13.7   13.8   13.8  1019.0  0.00  0.00   0.016   0.000   23.9    54   14.0   24.1   9.85  .0735    117    1    100.0    5 
16/08/17   2:55   13.7   13.7   13.7    91   12.2   0.0   ---   0.00   0.0   ---   13.7   13.7   13.7  1018.9  0.00  0.00   0.016   0.000   23.9    54   14.0   24.1   9.85  .0735    117    1    100.0    5 
16/08/17   3:00   13.6   13.7   13.6    91   12.2   0.0   ---   0.00   0.0   ---   13.6   13.7   13.7  1018.9  0.00  0.00   0.016   0.000   23.9    54   14.1   24.2   9.85  .0735    117    1    100.0    5 
16/08/17   3:05   13.5   13.6   13.5    91   12.1   0.0   ---   0.00   0.0   ---   13.5   13.6   13.6  1018.9  0.00  0.00   0.017   0.000   23.9    53   13.7   24.1   9.65  .0735    117    1    100.0    5 
16/08/17   3:10   13.5   13.5   13.5    91   12.1   0.0   ---   0.00   0.0   ---   13.5   13.6   13.6  1018.9  0.00  0.00   0.017   0.000   23.9    53   13.7   24.1   9.65  .0735    117    1    100.0    5 
16/08/17   3:15   13.4   13.5   13.4    91   12.0   0.0   ---   0.00   0.0   ---   13.4   13.5   13.5  1018.9  0.00  0.00   0.017   0.000   23.8    53   13.7   24.0   9.65  .0735    116    1    100.0    5 
16/08/17   3:20   13.4   13.4   13.4    91   12.0   0.0   ---   0.00   0.0   ---   13.4   13.5   13.5  1018.9  0.00  0.00   0.017   0.000   23.7    53   13.6   23.8   9.66  .0735    117    1    100.0    5 
16/08/17   3:25   13.4   13.4   13.4    91   11.9   0.0   ---   0.00   0.0   ---   13.4   13.4   13.4  1019.0  0.00  0.00   0.017   0.000   23.7    53   13.5   23.8   9.67  .0736    117    1    100.0    5 
16/08/17   3:30   13.3   13.4   13.3    91   11.9   0.0   ---   0.00   0.0   ---   13.3   13.4   13.4  1018.9  0.00  0.00   0.017   0.000   23.6    53   13.4   23.6   9.67  .0736    116    1    100.0    5 
16/08/17   3:35   13.3   13.3   13.3    91   11.8   0.0   ---   0.00   0.0   ---   13.3   13.3   13.3  1018.9  0.00  0.00   0.018   0.000   23.4    54   13.6   23.6   9.87  .0736    117    1    100.0    5 
16/08/17   3:40   13.2   13.3   13.2    91   11.8   0.0   ---   0.00   0.0   ---   13.2   13.3   13.3  1018.9  0.00  0.00   0.018   0.000   23.4    54   13.6   23.4   9.87  .0736    115    1    100.0    5 
16/08/17   3:45   13.2   13.2   13.2    91   11.8   1.0     W   0.08   2.0     W   13.2   13.3   13.3  1018.9  0.00  0.00   0.018   0.000   23.3    54   13.4   23.3   9.87  .0737    117    1    100.0    5 
16/08/17   3:50   13.2   13.2   13.2    91   11.7   1.0     W   0.08   3.0     W   13.2   13.2   13.2  1018.8  0.00  0.00   0.018   0.000   23.2    54   13.3   23.2   9.88  .0737    116    1    100.0    5 
16/08/17   3:55   13.1   13.2   13.1    91   11.7   0.0     W   0.00   2.0     W   13.1   13.2   13.2  1018.8  0.00  0.00   0.018   0.000   23.1    54   13.3   23.1   9.88  .0737    117    1    100.0    5 
16/08/17   4:00   13.1   13.1   13.1    92   11.8   0.0     W   0.00   1.0     W   13.1   13.1   13.1  1018.8  0.00  0.00   0.018   0.000   23.0    54   13.2   23.0   9.88  .0737    117    1    100.0    5 
16/08/17   4:05   13.1   13.1   13.0    92   11.8   0.0     W   0.00   2.0     W   13.1   13.1   13.1  1018.9  0.00  0.00   0.018   0.000   22.9    54   13.1   22.9   9.88  .0738    116    1    100.0    5 
16/08/17   4:10   13.0   13.1   13.0    92   11.7   2.0     W   0.17   4.0     W   13.0   13.1   13.1  1018.8  0.00  0.00   0.019   0.000   22.9    54   13.1   22.8   9.89  .0738    117    1    100.0    5 
16/08/17   4:15   12.9   13.0   12.9    91   11.5   1.0     W   0.08   3.0     W   12.9   12.9   12.9  1018.8  0.00  0.00   0.019   0.000   22.8    54   13.0   22.7   9.89  .0738    117    1    100.0    5 
16/08/17   4:20   12.8   12.9   12.8    91   11.4   1.0     W   0.08   2.0     W   12.8   12.9   12.9  1018.7  0.00  0.00   0.019   0.000   22.8    54   13.0   22.7   9.89  .0738    117    1    100.0    5 
16/08/17   4:25   12.8   12.8   12.8    92   11.5   1.0     W   0.08   2.0     W   12.8   12.8   12.8  1018.7  0.00  0.00   0.019   0.000   22.7    54   12.9   22.7   9.89  .0738    117    1    100.0    5 
16/08/17   4:30   12.7   12.8   12.7    92   11.5   2.0     W   0.17   3.0     W   12.7   12.8   12.8  1018.8  0.00  0.00   0.019   0.000   22.6    54   12.8   22.5   9.90  .0739    117    1    100.0    5 
16/08/17   4:35   12.7   12.7   12.7    92   11.4   2.0     W   0.17   3.0     W   12.7   12.7   12.7  1018.8  0.00  0.00   0.020   0.000   22.5    54   12.7   22.3   9.90  .0739    117    1    100.0    5 
16/08/17   4:40   12.6   12.7   12.6    92   11.3   2.0     W   0.17   3.0     W   12.6   12.7   12.7  1018.8  0.00  0.00   0.020   0.000   22.4    54   12.6   22.2   9.90  .0739    117    1    100.0    5 
16/08/17   4:45   12.6   12.6   12.6    92   11.3   1.0     W   0.08   2.0     W   12.6   12.7   12.7  1018.8  0.00  0.00   0.020   0.000   22.3    54   12.6   22.1   9.91  .0740    117    1    100.0    5 
16/08/17   4:50   12.6   12.6   12.6    92   11.3   2.0     W   0.17   3.0     W   12.6   12.6   12.6  1018.9  0.00  0.00   0.020   0.000   22.3    54   12.5   22.0   9.91  .0740    117    1    100.0    5 
16/08/17   4:55   12.6   12.6   12.6    92   11.3   2.0     W   0.17   3.0     W   12.6   12.6   12.6  1018.9  0.00  0.00   0.020   0.000   22.2    54   12.4   21.8   9.91  .0740    117    1    100.0    5 
16/08/17   5:00   12.5   12.6   12.5    92   11.2   2.0     W   0.17   3.0     W   12.5   12.6   12.6  1019.0  0.00  0.00   0.020   0.000   22.1    54   12.4   21.7   9.91  .0740    116    1    100.0    5 
16/08/17   5:05   12.5   12.5   12.4    92   11.2   2.0     W   0.17   3.0     W   12.5   12.6   12.6  1019.0  0.00  0.00   0.020   0.000   22.1    54   12.3   21.7   9.92  .0741    117    1    100.0    5 
16/08/17   5:10   12.4   12.4   12.4    92   11.2   2.0     W   0.17   4.0     W   12.4   12.5   12.5  1018.9  0.00  0.00   0.020   0.000   22.0    54   12.3   21.6   9.92  .0741    117    1    100.0    5 
16/08/17   5:15   12.4   12.4   12.4    92   11.2   2.0     W   0.17   3.0     W   12.4   12.5   12.5  1019.0  0.00  0.00   0.020   0.000   21.9    54   12.2   21.4   9.92  .0741    116    1    100.0    5 
16/08/17   5:20   12.4   12.4   12.4    92   11.1   3.0     W   0.25   4.0     W   12.4   12.4   12.4  1019.0  0.00  0.00   0.021   0.000   21.8    54   12.1   21.2   9.93  .0741    116    1    100.0    5 
16/08/17   5:25   12.4   12.4   12.4    92   11.1   3.0     W   0.25   4.0     W   12.4   12.4   12.4  1019.1  0.00  0.00   0.021   0.000   21.7    54   12.0   21.2   9.93  .0742    117    1    100.0    5 
16/08/17   5:30   12.3   12.4   12.3    92   11.1   3.0     W   0.25   5.0     W   12.3   12.4   12.4  1019.1  0.00  0.00   0.021   0.000   21.6    54   11.9   21.0   9.93  .0742    116    1    100.0    5 
16/08/17   5:35   12.3   12.3   12.3    92   11.1   2.0     W   0.17   4.0     W   12.3   12.4   12.4  1019.1  0.00  0.00   0.021   0.000   21.5    54   11.8   20.8   9.94  .0742    117    1    100.0    5 
16/08/17   5:40   12.3   12.3   12.3    92   11.1   3.0     W   0.25   4.0     W   12.3   12.4   12.4  1019.1  0.00  0.00   0.021   0.000   21.4    54   11.7   20.7   9.94  .0743    117    1    100.0    5 
16/08/17   5:45   12.3   12.3   12.3    92   11.1   2.0     W   0.17   3.0     W   12.3   12.4   12.4  1019.1  0.00  0.00   0.021   0.000   21.3    55   11.9   20.7  10.14  .0743    117    1    100.0    5 
16/08/17   5:50   12.3   12.3   12.3    92   11.1   2.0     W   0.17   3.0     W   12.3   12.4   12.4  1019.2  0.00  0.00   0.021   0.000   21.3    55   11.9   20.6  10.14  .0743    115    1    100.0    5 
16/08/17   5:55   12.3   12.3   12.3    92   11.1   2.0     W   0.17   4.0     W   12.3   12.4   12.4  1019.2  0.00  0.00   0.021   0.000   21.2    55   11.8   20.6  10.15  .0743    116    1    100.0    5 
16/08/17   6:00   12.4   12.4   12.3    92   11.1   2.0     W   0.17   4.0     W   12.4   12.4   12.4  1019.2  0.00  0.00   0.021   0.000   21.2    55   11.8   20.6  10.15  .0743    115    1    100.0    5 
16/08/17   6:05   12.4   12.4   12.4    92   11.2   3.0     W   0.25   4.0     W   12.4   12.5   12.5  1019.1  0.00  0.00   0.020   0.000   21.2    55   11.8   20.4  10.15  .0743    117    1    100.0    5 
16/08/17   6:10   12.4   12.4   12.4    92   11.2   2.0     W   0.17   4.0     W   12.4   12.5   12.5  1019.2  0.00  0.00   0.020   0.000   21.1    55   11.7   20.4  10.15  .0743    117    1    100.0    5 
16/08/17   6:15   12.5   12.5   12.4    92   11.2   2.0     W   0.17   4.0     W   12.5   12.6   12.6  1019.3  0.00  0.00   0.020   0.000   21.0    55   11.6   20.3  10.15  .0744    117    1    100.0    5 
16/08/17   6:20   12.5   12.5   12.5    92   11.2   3.0   WNW   0.25   5.0   WNW   12.5   12.6   12.6  1019.2  0.00  0.00   0.020   0.000   20.9    55   11.6   20.3  10.16  .0744    118    1    100.0    5 
16/08/17   6:25   12.5   12.5   12.5    92   11.2   3.0   WNW   0.25   5.0   WNW   12.5   12.6   12.6  1019.2  0.00  0.00   0.020   0.000   20.9    55   11.5   20.2  10.16  .0744    117    1    100.0    5 
16/08/17   6:30   12.6   12.6   12.5    92   11.3   2.0   WNW   0.17   4.0   WNW   12.6   12.6   12.6  1019.2  0.00  0.00   0.020   0.000   20.8    55   11.5   20.2  10.16  .0744    116    1    100.0    5 
16/08/17   6:35   12.6   12.6   12.6    92   11.3   2.0   WNW   0.17   3.0   WNW   12.6   12.7   12.7  1019.2  0.00  0.00   0.020   0.000   20.8    55   11.4   20.2  10.16  .0745    117    1    100.0    5 
16/08/17   6:40   12.7   12.7   12.6    92   11.4   1.0   WNW   0.08   3.0   WNW   12.7   12.7   12.7  1019.2  0.00  0.00   0.020   0.000   20.7    56   11.6   20.2  10.36  .0745    116    1    100.0    5 
16/08/17   6:45   12.7   12.7   12.7    92   11.5   1.0   WNW   0.08   2.0   WNW   12.7   12.8   12.8  1019.2  0.00  0.00   0.019   0.000   20.7    56   11.6   20.2  10.36  .0745    116    1    100.0    5 
16/08/17   6:50   12.8   12.8   12.7    92   11.5   0.0   WNW   0.00   2.0   WNW   12.8   12.8   12.8  1019.3  0.00  0.00   0.019   0.000   20.7    56   11.6   20.2  10.36  .0745    116    1    100.0    5 
16/08/17   6:55   12.9   12.9   12.8    92   11.6   0.0   ---   0.00   0.0   ---   12.9   12.9   12.9  1019.3  0.00  0.00   0.019   0.000   20.7    56   11.6   20.2  10.36  .0745    115    1    100.0    5 
16/08/17   7:00   13.0   13.0   12.9    92   11.7   0.0   ---   0.00   0.0   ---   13.0   13.1   13.1  1019.4  0.00  0.00   0.019   0.000   20.7    56   11.6   20.2  10.36  .0745    117    1    100.0    5 
16/08/17   7:05   13.1   13.1   13.0    92   11.8   0.0   ---   0.00   0.0   ---   13.1   13.2   13.2  1019.5  0.00  0.00   0.018   0.000   20.8    56   11.7   20.2  10.36  .0745    117    1    100.0    5 
16/08/17   7:10   13.2   13.2   13.1    92   12.0   0.0   ---   0.00   0.0   ---   13.2   13.3   13.3  1019.5  0.00  0.00   0.018   0.000   20.8    56   11.7   20.2  10.36  .0744    116    1    100.0    5 
16/08/17   7:15   13.3   13.3   13.2    92   12.1   0.0   ---   0.00   0.0   ---   13.3   13.4   13.4  1019.6  0.00  0.00   0.017   0.000   20.9    56   11.8   20.3  10.36  .0744    116    1    100.0    5 
16/08/17   7:20   13.4   13.4   13.3    92   12.2   0.0   ---   0.00   0.0   ---   13.4   13.5   13.5  1019.5  0.00  0.00   0.017   0.000   20.9    56   11.8   20.3  10.36  .0744    117    1    100.0    5 
16/08/17   7:25   13.5   13.5   13.4    92   12.2   0.0   ---   0.00   0.0   ---   13.5   13.6   13.6  1019.5  0.00  0.00   0.017   0.000   20.9    56   11.8   20.3  10.36  .0744    118    1    100.0    5 
16/08/17   7:30   13.7   13.7   13.5    92   12.4   0.0   ---   0.00   0.0   ---   13.7   13.7   13.7  1019.5  0.00  0.00   0.016   0.000   21.0    56   11.9   20.4  10.35  .0744    115    1    100.0    5 
16/08/17   7:35   13.8   13.8   13.7    92   12.5   0.0   ---   0.00   0.0   ---   13.8   13.8   13.8  1019.5  0.00  0.00   0.016   0.000   21.1    56   11.9   20.4  10.35  .0744    117    1    100.0    5 
16/08/17   7:40   13.9   13.9   13.8    92   12.6   0.0   ---   0.00   0.0   ---   13.9   13.9   13.9  1019.5  0.00  0.00   0.015   0.000   21.1    56   12.0   20.4  10.35  .0744    115    1    100.0    5 
16/08/17   7:45   14.0   14.0   13.9    92   12.7   0.0   ---   0.00   0.0   ---   14.0   14.1   14.1  1019.6  0.00  0.00   0.015   0.000   21.1    56   12.0   20.4  10.35  .0744    115    1    100.0    5 
16/08/17   7:50   14.2   14.2   14.0    92   12.9   0.0   ---   0.00   0.0   ---   14.2   14.3   14.3  1019.6  0.00  0.00   0.014   0.000   21.2    57   12.3   20.6  10.55  .0743    116    1    100.0    5 
16/08/17   7:55   14.3   14.3   14.2    92   13.0   0.0   ---   0.00   0.0   ---   14.3   14.4   14.4  1019.5  0.00  0.00   0.014   0.000   21.2    57   12.3   20.6  10.55  .0743    117    1    100.0    5 
16/08/17   8:00   14.4   14.4   14.3    93   13.3   0.0   WNW   0.00   2.0   WNW   14.4   14.6   14.6  1019.5  0.00  0.00   0.014   0.000   21.3    57   12.4   20.7  10.54  .0743    117    1    100.0    5 
16/08/17   8:05   14.7   14.7   14.4    93   13.5   1.0   WNW   0.08   2.0   WNW   14.7   14.8   14.8  1019.5  0.00  0.00   0.013   0.000   21.3    57   12.4   20.7  10.54  .0743    116    1    100.0    5 
16/08/17   8:10   14.9   14.9   14.6    93   13.8   2.0   WNW   0.17   5.0   WNW   14.9   15.1   15.1  1019.6  0.00  0.00   0.012   0.000   21.3    57   12.5   20.8  10.53  .0743    117    1    100.0    5 
16/08/17   8:15   15.3   15.3   14.9    93   14.2   2.0    NE   0.17   7.0    NE   15.3   15.5   15.5  1019.6  0.00  0.00   0.010   0.000   21.4    57   12.5   20.8  10.53  .0743    117    1    100.0    5 
16/08/17   8:20   15.9   15.9   15.3    94   14.9   4.0    NE   0.33   8.0   ENE   15.9   16.1   16.1  1019.5  0.00  0.00   0.008   0.000   21.4    58   12.8   21.0  10.73  .0742    116    1    100.0    5 
16/08/17   8:25   16.4   16.4   15.9    93   15.3   7.0     S   0.58   8.0   SSE   16.2   16.8   16.6  1019.7  0.00  0.00   0.007   0.000   21.4    58   12.8   21.0  10.73  .0742    117    1    100.0    5 
16/08/17   8:30   16.6   16.6   16.4    92   15.3   7.0     S   0.58   9.0     S   16.4   16.9   16.8  1019.6  0.00  0.00   0.006   0.000   21.5    59   13.1   21.1  10.92  .0742    117    1    100.0    5 
16/08/17   8:35   16.8   16.8   16.6    91   15.3   7.0     S   0.58   9.0     S   16.6   17.1   16.9  1019.6  0.00  0.00   0.005   0.000   21.5    59   13.1   21.1  10.92  .0742    117    1    100.0    5 
16/08/17   8:40   16.9   16.9   16.8    91   15.5   6.0     S   0.50   8.0     S   16.9   17.3   17.3  1019.7  0.00  0.00   0.005   0.000   21.5    59   13.1   21.1  10.92  .0742    117    1    100.0    5 
16/08/17   8:45   17.1   17.1   16.9    91   15.6   6.0     S   0.50   9.0     S   17.1   17.4   17.4  1019.7  0.00  0.00   0.004   0.000   21.6    60   13.5   21.2  11.03  .0742    117    1    100.0    5 
16/08/17   8:50   16.9   17.1   16.9    89   15.1   7.0   SSW   0.58   8.0     S   16.8   17.3   17.2  1019.7  0.00  0.00   0.005   0.000   21.6    60   13.5   21.2  11.03  .0742    117    1    100.0    5 
16/08/17   8:55   17.1   17.1   16.9    90   15.5   7.0     S   0.58   8.0   SSW   17.1   17.5   17.4  1019.7  0.00  0.00   0.004   0.000   21.6    60   13.5   21.2  11.03  .0742    117    1    100.0    5 
16/08/17   9:00   17.2   17.2   17.1    89   15.3   7.0     S   0.58   9.0   SSW   17.1   17.5   17.4  1019.7  0.00  0.00   0.004   0.000   21.6    60   13.5   21.2  11.03  .0742    117    1    100.0    5 
16/08/17   9:05   17.2   17.2   17.2    89   15.3   8.0     S   0.67  11.0     S   16.7   17.5   17.0  1019.8  0.00  0.00   0.004   0.000   21.6    61   13.8   21.4  11.21  .0741    117    1    100.0    5 
16/08/17   9:10   17.2   17.3   17.2    88   15.2   8.0   SSW   0.67  11.0     S   16.7   17.6   17.1  1019.7  0.00  0.00   0.004   0.000   21.6    61   13.8   21.4  11.21  .0741    117    1    100.0    5 
16/08/17   9:15   17.3   17.3   17.2    89   15.4   8.0   SSW   0.67  11.0   SSW   16.8   17.7   17.2  1019.7  0.00  0.00   0.004   0.000   21.7    61   13.8   21.4  11.21  .0741    116    1    100.0    5 
16/08/17   9:20   17.3   17.3   17.3    89   15.5   8.0   SSW   0.67  11.0   SSW   16.8   17.7   17.2  1019.8  0.00  0.00   0.003   0.000   21.7    61   13.8   21.4  11.21  .0741    117    1    100.0    5 
16/08/17   9:25   17.4   17.4   17.3    88   15.4   9.0   SSW   0.75  11.0   SSW   16.4   17.7   16.8  1019.8  0.00  0.00   0.003   0.000   21.7    61   13.9   21.5  11.21  .0741    117    1    100.0    5 
16/08/17   9:30   17.4   17.4   17.3    88   15.4   9.0   SSW   0.75  13.0   SSW   16.4   17.7   16.8  1019.9  0.00  0.00   0.003   0.000   21.8    62   14.2   21.6  11.33  .0741    118    1    100.0    5 
16/08/17   9:35   17.2   17.4   17.2    87   15.0  11.0   SSW   0.92  14.0   SSW   15.4   17.6   15.8  1020.0  0.00  0.00   0.004   0.000   21.7    62   14.1   21.6  11.33  .0741    117    1    100.0    5 
16/08/17   9:40   17.3   17.3   17.2    87   15.1  12.0   SSW   1.00  14.0   SSW   15.2   17.6   15.5  1019.9  0.00  0.00   0.004   0.000   21.8    61   13.9   21.6  11.20  .0741    117    1    100.0    5 
16/08/17   9:45   17.3   17.3   17.3    87   15.1   9.0   SSW   0.75  12.0   SSW   16.3   17.7   16.7  1019.9  0.00  0.00   0.003   0.000   21.8    62   14.2   21.6  11.33  .0741    117    1    100.0    5 
16/08/17   9:50   17.3   17.4   17.3    87   15.1   9.0   SSW   0.75  13.0   SSW   16.3   17.7   16.7  1019.9  0.00  0.00   0.003   0.000   21.8    62   14.2   21.6  11.33  .0741    117    1    100.0    5 
16/08/17   9:55   17.4   17.4   17.3    87   15.2   8.0   SSW   0.67  10.0   SSW   16.9   17.7   17.2  1019.9  0.00  0.00   0.003   0.000   21.8    62   14.2   21.7  11.32  .0740    117    1    100.0    5 
16/08/17  10:00   17.3   17.4   17.3    86   14.9   9.0    SW   0.75  12.0    SW   16.3   17.6   16.6  1020.1  0.00  0.00   0.004   0.000   21.8    61   14.0   21.7  11.20  .0741    116    1    100.0    5 
16/08/17  10:05   17.3   17.3   17.3    86   15.0  10.0   SSW   0.83  12.0    SW   15.9   17.7   16.3  1020.1  0.00  0.00   0.003   0.000   21.8    62   14.2   21.7  11.32  .0741    117    1    100.0    5 
16/08/17  10:10   17.4   17.4   17.3    85   14.9  11.0   SSW   0.92  15.0    SW   15.7   17.7   15.9  1020.1  0.00  0.00   0.003   0.000   21.9    62   14.3   21.8  11.32  .0740    116    1    100.0    5 
16/08/17  10:15   17.4   17.5   17.4    83   14.5  11.0    SW   0.92  15.0   SSW   15.7   17.7   15.9  1020.1  0.00  0.00   0.003   0.000   21.9    61   14.0   21.7  11.19  .0741    114    1    100.0    5 
16/08/17  10:20   17.6   17.6   17.4    83   14.6  10.0    SW   0.83  13.0    SW   16.2   17.8   16.5  1020.1  0.00  0.00   0.003   0.000   22.0    61   14.1   21.9  11.19  .0740    117    1    100.0    5 
16/08/17  10:25   17.6   17.6   17.6    81   14.3   9.0    SW   0.75  11.0    SW   16.6   17.8   16.8  1020.0  0.00  0.00   0.003   0.000   22.1    61   14.2   22.0  11.18  .0740    117    1    100.0    5 
16/08/17  10:30   17.7   17.7   17.6    83   14.7  10.0    SW   0.83  13.0    SW   16.3   17.9   16.6  1020.0  0.00  0.00   0.002   0.000   22.2    61   14.3   22.1  11.17  .0740    117    1    100.0    5 
16/08/17  10:35   17.7   17.7   17.6    83   14.7  10.0    SW   0.83  13.0    SW   16.3   17.9   16.6  1020.0  0.00  0.00   0.002   0.000   22.2    61   14.3   22.2  11.17  .0739    118    1    100.0    5 
16/08/17  10:40   17.9   17.9   17.7    84   15.1  10.0    SW   0.83  12.0    SW   16.6   18.2   16.9  1020.0  0.00  0.00   0.002   0.000   22.4    61   14.5   22.4  11.16  .0739    116    1    100.0    5 
16/08/17  10:45   17.8   17.9   17.8    84   15.0  10.0    SW   0.83  12.0    SW   16.4   18.1   16.8  1020.1  0.00  0.00   0.002   0.000   22.5    61   14.6   22.6  11.15  .0739    116    1    100.0    5 
16/08/17  10:50   17.8   17.8   17.7    84   15.1   9.0    SW   0.75  13.0   SSW   16.9   18.2   17.3  1020.1  0.00  0.00   0.002   0.000   22.6    61   14.7   22.7  11.15  .0738    117    1    100.0    5 
16/08/17  10:55   17.8   17.8   17.8    84   15.1  10.0    SW   0.83  14.0    SW   16.5   18.2   16.8  1020.1  0.00  0.00   0.002   0.000   22.6    61   14.7   22.8  11.14  .0738    116    1    100.0    5 
16/08/17  11:00   17.7   17.9   17.7    83   14.8  10.0    SW   0.83  12.0    SW   16.4   18.0   16.7  1020.1  0.00  0.00   0.002   0.000   22.7    61   14.8   22.9  11.14  .0738    117    1    100.0    5 
16/08/17  11:05   17.8   17.8   17.7    84   15.0  10.0    SW   0.83  12.0    SW   16.4   18.1   16.8  1020.0  0.00  0.00   0.002   0.000   22.7    61   14.8   22.9  11.14  .0738    117    1    100.0    5 
16/08/17  11:10   17.9   17.9   17.8    83   15.0  10.0    SW   0.83  12.0    SW   16.6   18.2   16.9  1020.0  0.00  0.00   0.002   0.000   22.7    61   14.8   22.9  11.13  .0738    117    1    100.0    5 
16/08/17  11:15   18.1   18.1   17.9    84   15.3  10.0   SSW   0.83  14.0    SW   16.8   18.4   17.2  1020.0  0.00  0.00   0.001   0.000   22.7    61   14.8   22.9  11.13  .0738    115    1    100.0    5 
16/08/17  11:20   17.9   18.1   17.9    82   14.8  10.0    SW   0.83  12.0    SW   16.7   18.3   17.0  1020.0  0.00  0.00   0.001   0.000   22.7    62   15.1   23.0  11.29  .0738    117    1    100.0    5 
16/08/17  11:25   18.0   18.0   17.9    83   15.1   9.0    SW   0.75  12.0    SW   17.2   18.3   17.5  1019.9  0.00  0.00   0.001   0.000   22.7    61   14.8   22.9  11.13  .0738    117    1    100.0    5 
16/08/17  11:30   18.1   18.1   18.0    83   15.2  10.0    SW   0.83  13.0    SW   16.8   18.5   17.2  1019.9  0.00  0.00   0.001   0.000   22.7    61   14.8   22.9  11.13  .0738    117    1    100.0    5 
16/08/17  11:35   18.2   18.2   18.0    84   15.5   9.0    SW   0.75  12.0    SW   17.4   18.6   17.8  1019.9  0.00  0.00   0.000   0.000   22.7    62   15.1   23.0  11.29  .0738    117    1    100.0    5 
16/08/17  11:40   18.3   18.4   18.2    82   15.2  10.0    SW   0.83  13.0   SSW   17.1   18.7   17.5  1019.9  0.00  0.00   0.000   0.000   22.7    62   15.1   23.0  11.29  .0738    118    1    100.0    5 
16/08/17  11:45   18.3   18.3   18.3    82   15.2  10.0    SW   0.83  14.0    SW   17.1   18.7   17.5  1019.8  0.00  0.00   0.000   0.000   22.7    62   15.0   22.9  11.29  .0738    117    1    100.0    5 
16/08/17  11:50   18.3   18.3   18.3    82   15.2  11.0    SW   0.92  13.0   SSW   16.7   18.7   17.1  1019.7  0.00  0.00   0.000   0.000   22.7    62   15.0   22.9  11.29  .0738    117    1    100.0    5 
16/08/17  11:55   18.3   18.4   18.2    82   15.2  11.0    SW   0.92  15.0   SSW   16.7   18.7   17.1  1019.7  0.00  0.00   0.000   0.000   22.7    62   15.0   22.9  11.29  .0738    117    1    100.0    5 
16/08/17  12:00   18.5   18.5   18.3    82   15.4  10.0    SW   0.83  14.0    SW   17.3   18.9   17.8  1019.6  0.00  0.00   0.000   0.001   22.6    61   14.7   22.8  11.14  .0738    117    1    100.0    5 
16/08/17  12:05   18.4   18.6   18.4    80   14.9   9.0    SW   0.75  13.0    SW   17.6   18.8   18.0  1019.7  0.00  0.00   0.000   0.000   22.6    61   14.7   22.8  11.14  .0738    117    1    100.0    5 
16/08/17  12:10   18.6   18.6   18.4    80   15.0   9.0    SW   0.75  13.0    SW   17.8   19.0   18.2  1019.6  0.00  0.00   0.000   0.001   22.6    62   15.0   22.8  11.30  .0738    117    1    100.0    5 
16/08/17  12:15   18.6   18.6   18.4    80   15.0   8.0    SW   0.67  12.0   SSW   18.2   19.0   18.7  1019.5  0.00  0.00   0.000   0.001   22.6    61   14.7   22.8  11.14  .0738    117    1    100.0    5 
16/08/17  12:20   18.5   18.6   18.4    79   14.8   9.0   SSW   0.75  12.0    SW   17.7   18.9   18.1  1019.4  0.00  0.00   0.000   0.001   22.7    60   14.5   22.8  10.99  .0738    117    1    100.0    5 
16/08/17  12:25   18.6   18.7   18.5    79   14.9   8.0   SSW   0.67  10.0   SSW   18.3   19.0   18.7  1019.3  0.00  0.00   0.000   0.001   22.7    61   14.8   22.9  11.13  .0737    117    1    100.0    5 
16/08/17  12:30   18.6   18.7   18.6    79   14.8   8.0   SSW   0.67  10.0    SW   18.2   18.9   18.6  1019.2  0.00  0.00   0.000   0.001   22.7    60   14.6   22.9  10.99  .0737    117    1    100.0    5 
16/08/17  12:35   18.6   18.6   18.5    80   15.1   7.0   SSW   0.58  10.0   SSW   18.6   19.1   19.1  1019.1  0.00  0.00   0.000   0.001   22.7    60   14.6   22.9  10.99  .0737    117    1    100.0    5 
16/08/17  12:40   18.4   18.6   18.4    79   14.7   8.0   SSW   0.67  10.0   SSW   18.1   18.8   18.5  1019.1  0.00  0.00   0.000   0.000   22.7    61   14.8   22.9  11.13  .0737    118    1    100.0    5 
16/08/17  12:45   18.3   18.4   18.3    80   14.8   8.0   SSW   0.67  12.0   SSW   18.0   18.7   18.4  1019.1  0.00  0.00   0.000   0.000   22.7    61   14.8   22.9  11.13  .0737    117    1    100.0    5 
16/08/17  12:50   18.3   18.4   18.3    79   14.6   8.0   SSW   0.67  10.0   SSW   18.0   18.7   18.3  1019.1  0.00  0.00   0.000   0.000   22.7    60   14.6   22.9  10.99  .0737    116    1    100.0    5 
16/08/17  12:55   18.4   18.4   18.3    81   15.1   8.0   SSW   0.67  10.0   SSW   18.1   18.9   18.6  1019.0  0.00  0.00   0.000   0.000   22.7    61   14.8   22.9  11.13  .0737    117    1    100.0    5 
16/08/17  13:00   18.6   18.6   18.4    80   15.1   8.0     S   0.67  10.0     S   18.3   19.1   18.7  1018.9  0.00  0.00   0.000   0.001   22.7    61   14.8   22.9  11.13  .0737    117    1    100.0    5 
16/08/17  13:05   18.7   18.7   18.6    81   15.4   7.0     S   0.58   9.0     S   18.7   19.2   19.2  1018.9  0.00  0.00   0.000   0.001   22.7    61   14.8   22.9  11.14  .0737    117    1    100.0    5 
16/08/17  13:10   18.7   18.8   18.7    80   15.2   9.0   SSW   0.75  12.0     S   18.0   19.2   18.4  1019.0  0.00  0.00   0.000   0.001   22.7    62   15.1   23.0  11.29  .0737    117    1    100.0    5 
16/08/17  13:15   18.7   18.7   18.6    81   15.3   9.0   SSW   0.75  12.0   SSW   17.9   19.1   18.4  1019.1  0.00  0.00   0.000   0.001   22.7    61   14.8   22.9  11.13  .0737    117    1    100.0    5 
16/08/17  13:20   18.7   18.7   18.7    80   15.1   9.0   SSW   0.75  12.0   SSW   17.9   19.1   18.4  1019.2  0.00  0.00   0.000   0.001   22.7    62   15.1   23.0  11.29  .0737    116    1    100.0    5 
16/08/17  13:25   18.6   18.7   18.6    81   15.3   9.0   SSW   0.75  13.0   SSW   17.9   19.1   18.3  1019.2  0.00  0.00   0.000   0.001   22.8    62   15.1   23.1  11.29  .0737    115    1    100.0    5 
16/08/17  13:30   18.6   18.6   18.5    81   15.2  10.0   SSW   0.83  14.0   SSW   17.4   19.0   17.8  1019.3  0.00  0.00   0.000   0.001   22.8    62   15.1   23.1  11.29  .0737    117    1    100.0    5 
16/08/17  13:35   18.4   18.6   18.4    81   15.1  10.0    SW   0.83  13.0   SSW   17.2   18.9   17.7  1019.3  0.00  0.00   0.000   0.000   22.9    62   15.2   23.2  11.29  .0736    117    1    100.0    5 
16/08/17  13:40   18.4   18.5   18.4    81   15.1  10.0   SSW   0.83  13.0   SSW   17.2   18.9   17.7  1019.3  0.00  0.00   0.000   0.000   23.0    62   15.3   23.4  11.28  .0736    117    1    100.0    5 
16/08/17  13:45   18.5   18.6   18.4    81   15.2  11.0   SSW   0.92  14.0    SW   16.9   18.9   17.4  1019.4  0.00  0.00   0.000   0.001   23.1    61   15.1   23.4  11.11  .0736    118    1    100.0    5 
16/08/17  13:50   18.7   18.7   18.5    82   15.5  10.0   SSW   0.83  13.0   SSW   17.5   19.2   18.0  1019.4  0.00  0.00   0.000   0.001   23.1    61   15.2   23.5  11.11  .0736    117    1    100.0    5 
16/08/17  13:55   18.6   18.7   18.6    81   15.2  10.0   SSW   0.83  13.0    SW   17.4   19.0   17.8  1019.4  0.00  0.00   0.000   0.001   23.2    61   15.2   23.6  11.10  .0736    116    1    100.0    5 
16/08/17  14:00   18.4   18.5   18.4    82   15.3  10.0    SW   0.83  13.0   SSW   17.2   18.8   17.6  1019.4  0.00  0.00   0.000   0.000   23.2    61   15.2   23.6  11.10  .0736    117    1    100.0    5 
16/08/17  14:05   18.4   18.4   18.3    81   15.1   9.0   SSW   0.75  12.0    SW   17.6   18.8   18.0  1019.4  0.00  0.00   0.000   0.000   23.2    61   15.3   23.6  11.10  .0736    116    1    100.0    5 
16/08/17  14:10   18.4   18.4   18.4    81   15.1  10.0   SSW   0.83  12.0   SSW   17.2   18.8   17.6  1019.3  0.00  0.00   0.000   0.000   23.3    61   15.3   23.7  11.09  .0735    117    1    100.0    5 
16/08/17  14:15   18.4   18.6   18.4    80   14.9   9.0   SSW   0.75  13.0   SSW   17.7   18.8   18.1  1019.3  0.00  0.00   0.000   0.000   23.3    60   15.1   23.7  10.97  .0735    117    1    100.0    5 
16/08/17  14:20   18.6   18.6   18.4    79   14.8  12.0    SW   1.00  16.0   SSW   16.6   18.9   17.0  1019.4  0.00  0.00   0.000   0.001   23.3    60   15.1   23.7  10.97  .0736    116    1    100.0    5 
16/08/17  14:25   18.7   18.7   18.6    80   15.1  11.0   SSW   0.92  13.0    SW   17.1   19.1   17.6  1019.3  0.00  0.00   0.000   0.001   23.3    60   15.1   23.7  10.97  .0736    117    1    100.0    5 
16/08/17  14:30   18.8   18.8   18.7    79   15.1  11.0    SW   0.92  13.0    SW   17.3   19.2   17.7  1019.4  0.00  0.00   0.000   0.002   23.4    60   15.2   23.8  10.97  .0735    117    1    100.0    5 
16/08/17  14:35   18.8   18.8   18.7    79   15.1  11.0    SW   0.92  14.0   SSW   17.3   19.2   17.7  1019.4  0.00  0.00   0.000   0.002   23.4    60   15.2   23.8  10.97  .0735    115    1    100.0    5 
16/08/17  14:40   18.8   18.9   18.7    79   15.1  10.0    SW   0.83  13.0   SSW   17.7   19.3   18.2  1019.2  0.00  0.00   0.000   0.002   23.4    59   15.0   23.8  10.78  .0735    117    1    100.0    5 
16/08/17  14:45   18.8   18.9   18.8    78   14.9  11.0   SSW   0.92  15.0    SW   17.3   19.2   17.7  1019.3  0.00  0.00   0.000   0.002   23.5    59   15.0   23.9  10.78  .0735    117    1    100.0    5 
16/08/17  14:50   18.7   18.8   18.7    78   14.8  11.0    SW   0.92  15.0    SW   17.2   19.1   17.6  1019.3  0.00  0.00   0.000   0.001   23.6    58   14.8   23.9  10.57  .0735    118    1    100.0    5 
16/08/17  14:55   18.8   18.8   18.7    78   14.9  11.0   SSW   0.92  14.0    SW   17.3   19.2   17.7  1019.2  0.00  0.00   0.000   0.002   23.6    59   15.1   23.9  10.77  .0735    116    1    100.0    5 
16/08/17  15:00   18.8   18.8   18.7    78   14.9  12.0   SSW   1.00  15.0   SSW   16.9   19.2   17.3  1019.1  0.00  0.00   0.000   0.002   23.6    59   15.1   23.9  10.77  .0735    117    1    100.0    5 
16/08/17  15:05   18.8   18.8   18.8    79   15.1  11.0   SSW   0.92  14.0   SSW   17.3   19.2   17.7  1019.2  0.00  0.00   0.000   0.002   23.7    59   15.2   24.1  10.77  .0735    117    1    100.0    5 
16/08/17  15:10   18.8   18.8   18.8    79   15.1  11.0   SSW   0.92  14.0    SW   17.3   19.2   17.7  1019.0  0.00  0.00   0.000   0.002   23.7    59   15.2   24.1  10.77  .0734    116    1    100.0    5 
16/08/17  15:15   18.8   18.8   18.8    80   15.3  10.0    SW   0.83  13.0    SW   17.7   19.3   18.2  1018.9  0.00  0.00   0.000   0.002   23.8    59   15.3   24.2  10.76  .0734    117    1    100.0    5 
16/08/17  15:20   18.8   18.8   18.8    79   15.1  10.0    SW   0.83  13.0    SW   17.7   19.3   18.2  1018.9  0.00  0.00   0.000   0.002   23.8    59   15.3   24.3  10.75  .0734    116    1    100.0    5 
16/08/17  15:25   18.8   18.8   18.7    81   15.4  11.0   SSW   0.92  14.0   SSW   17.3   19.3   17.8  1019.0  0.00  0.00   0.000   0.002   23.8    59   15.3   24.3  10.75  .0734    117    1    100.0    5 
16/08/17  15:30   18.7   18.8   18.7    80   15.1  12.0   SSW   1.00  15.0   SSW   16.8   19.1   17.2  1019.0  0.00  0.00   0.000   0.001   23.9    59   15.4   24.3  10.75  .0734    115    1    100.0    5 
16/08/17  15:35   18.6   18.7   18.6    81   15.3  11.0    SW   0.92  14.0    SW   17.1   19.1   17.5  1018.9  0.00  0.00   0.000   0.001   23.9    59   15.4   24.4  10.75  .0733    117    1    100.0    5 
16/08/17  15:40   18.7   18.7   18.6    80   15.1  10.0    SW   0.83  14.0    SW   17.5   19.1   17.9  1018.8  0.00  0.00   0.000   0.001   24.0    59   15.5   24.4  10.74  .0733    116    1    100.0    5 
16/08/17  15:45   18.6   18.7   18.6    81   15.3  11.0   SSW   0.92  14.0    SW   17.1   19.1   17.5  1018.7  0.00  0.00   0.000   0.001   24.0    59   15.5   24.4  10.74  .0733    117    1    100.0    5 
16/08/17  15:50   18.7   18.7   18.6    82   15.5  10.0   SSW   0.83  15.0    SW   17.5   19.2   18.0  1018.7  0.00  0.00   0.000   0.001   24.0    59   15.5   24.4  10.74  .0733    118    1    100.0    5 
16/08/17  15:55   18.6   18.7   18.6    81   15.3  11.0   SSW   0.92  15.0    SW   17.1   19.1   17.5  1018.7  0.00  0.00   0.000   0.001   24.1    59   15.5   24.5  10.74  .0733    117    1    100.0    5 
16/08/17  16:00   18.7   18.7   18.6    81   15.3  10.0   SSW   0.83  13.0   SSW   17.5   19.1   17.9  1018.6  0.00  0.00   0.000   0.001   24.1    59   15.5   24.5  10.74  .0733    116    1    100.0    5 
16/08/17  16:05   18.8   18.8   18.7    80   15.3   9.0   SSW   0.75  13.0   SSW   18.1   19.3   18.6  1018.5  0.00  0.00   0.000   0.002   24.1    59   15.6   24.5  10.73  .0733    117    1    100.0    5 
16/08/17  16:10   18.7   18.8   18.7    80   15.1  10.0   SSW   0.83  13.0   SSW   17.5   19.1   17.9  1018.4  0.00  0.00   0.000   0.001   24.1    59   15.5   24.5  10.74  .0733    117    1    100.0    5 
16/08/17  16:15   18.8   18.8   18.7    81   15.4   9.0   SSW   0.75  11.0   SSW   18.1   19.3   18.6  1018.3  0.00  0.00   0.000   0.002   24.1    59   15.5   24.5  10.74  .0733    117    1    100.0    5 
16/08/17  16:20   18.9   18.9   18.8    81   15.6   8.0     S   0.67  10.0   SSW   18.6   19.4   19.1  1018.4  0.00  0.00   0.000   0.002   24.0    59   15.5   24.4  10.74  .0733    116    1    100.0    5 
16/08/17  16:25   18.8   18.9   18.8    80   15.3   9.0   SSW   0.75  12.0   SSW   18.1   19.3   18.6  1018.5  0.00  0.00   0.000   0.002   24.0    60   15.8   24.5  10.94  .0733    117    1    100.0    5 
16/08/17  16:30   18.8   18.8   18.8    81   15.5   8.0   SSW   0.67  12.0   SSW   18.5   19.3   19.0  1018.4  0.00  0.00   0.000   0.002   24.0    60   15.8   24.5  10.94  .0733    117    1    100.0    5 
16/08/17  16:35   18.7   18.8   18.7    81   15.4   8.0   SSW   0.67  11.0   SSW   18.4   19.2   18.9  1018.3  0.00  0.00   0.000   0.001   24.0    59   15.5   24.4  10.74  .0733    117    1    100.0    5 
16/08/17  16:40   18.7   18.7   18.7    81   15.4   8.0   SSW   0.67  11.0   SSW   18.4   19.2   18.9  1018.1  0.00  0.00   0.000   0.001   24.1    59   15.5   24.5  10.74  .0732    117    1    100.0    5 
16/08/17  16:45   18.7   18.8   18.7    80   15.1   8.0   SSW   0.67  12.0   SSW   18.3   19.1   18.8  1018.1  0.00  0.00   0.000   0.001   24.1    59   15.5   24.5  10.74  .0732    117    1    100.0    5 
16/08/17  16:50   18.8   18.8   18.7    81   15.5   8.0     S   0.67  11.0     S   18.5   19.3   19.0  1018.1  0.00  0.00   0.000   0.002   24.0    59   15.5   24.4  10.74  .0733    117    1    100.0    5 
16/08/17  16:55   18.9   18.9   18.8    81   15.6   8.0     S   0.67  11.0     S   18.6   19.4   19.1  1018.1  0.00  0.00   0.000   0.002   24.0    60   15.8   24.5  10.94  .0732    118    1    100.0    5 
16/08/17  17:00   18.9   18.9   18.9    80   15.4   8.0     S   0.67  10.0     S   18.6   19.4   19.1  1018.0  0.00  0.00   0.000   0.002   24.0    60   15.8   24.5  10.94  .0732    117    1    100.0    5 
16/08/17  17:05   18.9   19.0   18.9    81   15.6   8.0     S   0.67  11.0     S   18.6   19.4   19.1  1017.9  0.00  0.00   0.000   0.002   24.0    60   15.8   24.5  10.94  .0732    117    1    100.0    5 
16/08/17  17:10   18.9   19.0   18.9    80   15.4   8.0     S   0.67  10.0     S   18.6   19.4   19.1  1017.8  0.00  0.00   0.000   0.002   23.9    60   15.7   24.4  10.95  .0732    117    1    100.0    5 
16/08/17  17:15   18.9   18.9   18.8    81   15.6   7.0     S   0.58   9.0     S   18.9   19.4   19.4  1017.8  0.00  0.00   0.000   0.002   23.9    60   15.7   24.4  10.95  .0732    116    1    100.0    5 
16/08/17  17:20   18.8   18.9   18.8    79   15.1   7.0     S   0.58  10.0     S   18.8   19.2   19.2  1017.9  0.00  0.00   0.000   0.002   23.9    60   15.7   24.4  10.95  .0732    116    1    100.0    5 
16/08/17  17:25   18.8   18.8   18.8    80   15.3   7.0     S   0.58   9.0     S   18.8   19.3   19.3  1017.7  0.00  0.00   0.000   0.002   23.9    59   15.4   24.4  10.75  .0733    117    1    100.0    5 
16/08/17  17:30   18.9   18.9   18.8    81   15.6   7.0     S   0.58   8.0     S   18.9   19.4   19.4  1017.8  0.00  0.00   0.000   0.002   23.9    60   15.7   24.4  10.95  .0732    116    1    100.0    5 
16/08/17  17:35   18.8   18.9   18.8    79   15.1   7.0   SSW   0.58   9.0     S   18.8   19.2   19.2  1017.7  0.00  0.00   0.000   0.002   23.9    60   15.7   24.4  10.95  .0733    117    1    100.0    5 
16/08/17  17:40   18.6   18.8   18.6    80   15.1   6.0   SSW   0.50   9.0   SSW   18.6   19.1   19.1  1017.6  0.00  0.00   0.000   0.001   23.9    60   15.7   24.4  10.95  .0732    117    1    100.0    5 
16/08/17  17:45   18.6   18.6   18.6    79   14.8   6.0   SSW   0.50   8.0   SSW   18.6   18.9   18.9  1017.5  0.00  0.00   0.000   0.001   24.0    59   15.5   24.4  10.74  .0732    114    1    100.0    5 
16/08/17  17:50   18.6   18.6   18.6    81   15.3   7.0   SSW   0.58   9.0   SSW   18.6   19.1   19.1  1017.6  0.00  0.00   0.000   0.001   24.1    59   15.5   24.5  10.74  .0732    116    1    100.0    5 
16/08/17  17:55   18.6   18.7   18.6    80   15.0   7.0     S   0.58   9.0     S   18.6   19.0   19.0  1017.6  0.00  0.00   0.000   0.001   24.1    59   15.5   24.5  10.74  .0732    118    1    100.0    5 
16/08/17  18:00   18.5   18.6   18.4    81   15.2   7.0   SSW   0.58   9.0     S   18.5   18.9   18.9  1017.6  0.00  0.00   0.000   0.001   24.1    59   15.5   24.5  10.74  .0732    115    1    100.0    5 
16/08/17  18:05   18.6   18.6   18.5    81   15.3   7.0     S   0.58   9.0     S   18.6   19.1   19.1  1017.6  0.00  0.00   0.000   0.001   24.1    59   15.5   24.5  10.74  .0732    117    1    100.0    5 
16/08/17  18:10   18.6   18.7   18.6    81   15.2   7.0     S   0.58  10.0     S   18.6   19.0   19.0  1017.5  0.00  0.00   0.000   0.001   24.0    60   15.8   24.5  10.94  .0732    117    1    100.0    5 
16/08/17  18:15   18.6   18.6   18.6    81   15.2   7.0     S   0.58   9.0     S   18.6   19.0   19.0  1017.4  0.00  0.00   0.000   0.001   24.0    59   15.5   24.4  10.74  .0732    117    1    100.0    5 
16/08/17  18:20   18.4   18.6   18.4    81   15.1   7.0   SSW   0.58   9.0   SSW   18.4   18.9   18.9  1017.5  0.00  0.00   0.000   0.000   24.0    59   15.5   24.4  10.74  .0732    116    1    100.0    5 
16/08/17  18:25   18.4   18.4   18.4    81   15.1   7.0     S   0.58   9.0     S   18.4   18.9   18.9  1017.4  0.00  0.00   0.000   0.000   24.0    59   15.5   24.4  10.74  .0732    117    1    100.0    5 
16/08/17  18:30   18.4   18.4   18.4    81   15.1   8.0     S   0.67   9.0     S   18.1   18.8   18.4  1017.5  0.00  0.00   0.000   0.000   23.9    59   15.4   24.4  10.75  .0732    117    1    100.0    5 
16/08/17  18:35   18.2   18.3   18.2    82   15.1   7.0     S   0.58  10.0     S   18.2   18.6   18.6  1017.5  0.00  0.00   0.000   0.000   23.9    59   15.4   24.3  10.75  .0733    117    1    100.0    5 
16/08/17  18:40   18.1   18.2   18.1    82   14.9   8.0     S   0.67   9.0     S   17.7   18.4   18.0  1017.6  0.00  0.00   0.001   0.000   23.9    60   15.7   24.4  10.95  .0732    117    1    100.0    5 
16/08/17  18:45   17.9   18.1   17.9    83   15.0   7.0     S   0.58   9.0   SSW   17.9   18.2   18.2  1017.5  0.00  0.00   0.002   0.000   24.0    60   15.8   24.5  10.94  .0732    117    1    100.0    5 
16/08/17  18:50   17.7   17.9   17.7    83   14.7   6.0   SSW   0.50   9.0     S   17.7   17.9   17.9  1017.3  0.00  0.00   0.002   0.000   24.1    60   15.8   24.5  10.94  .0732    117    1    100.0    5 
16/08/17  18:55   17.6   17.7   17.6    83   14.7   7.0     S   0.58   9.0     S   17.6   17.9   17.9  1017.3  0.00  0.00   0.003   0.000   24.2    59   15.6   24.6  10.73  .0732    117    1    100.0    5 
16/08/17  19:00   17.7   17.7   17.6    83   14.7   7.0     S   0.58   8.0     S   17.7   17.9   17.9  1017.2  0.00  0.00   0.002   0.000   24.3    59   15.8   24.7  10.72  .0731    118    1    100.0    5 
16/08/17  19:05   17.6   17.7   17.6    84   14.9   7.0     S   0.58   9.0     S   17.6   17.9   17.9  1017.1  0.00  0.00   0.003   0.000   24.3    59   15.8   24.7  10.72  .0731    117    1    100.0    5 
16/08/17  19:10   17.6   17.6   17.6    84   14.8   6.0     S   0.50   8.0     S   17.6   17.8   17.8  1017.0  0.00  0.00   0.003   0.000   24.4    59   15.9   24.7  10.71  .0731    115    1    100.0    5 
16/08/17  19:15   17.6   17.6   17.6    84   14.9   6.0     S   0.50   9.0     S   17.6   17.9   17.9  1017.0  0.00  0.00   0.003   0.000   24.4    59   15.9   24.8  10.71  .0730    117    1    100.0    5 
16/08/17  19:20   17.6   17.6   17.6    84   14.8   6.0     S   0.50   8.0     S   17.6   17.8   17.8  1016.8  0.00  0.00   0.003   0.000   24.5    59   16.0   24.8  10.71  .0730    116    1    100.0    5 
16/08/17  19:25   17.6   17.6   17.6    84   14.8   6.0   SSE   0.50   9.0   SSE   17.6   17.8   17.8  1017.0  0.00  0.00   0.003   0.000   24.6    59   16.0   24.9  10.70  .0730    117    1    100.0    5 
16/08/17  19:30   17.6   17.6   17.5    84   14.8   6.0     S   0.50   8.0     S   17.6   17.8   17.8  1017.0  0.00  0.00   0.003   0.000   24.6    59   16.0   24.9  10.70  .0730    116    1    100.0    5 
16/08/17  19:35   17.5   17.6   17.5    84   14.8   7.0     S   0.58  10.0     S   17.5   17.8   17.8  1016.8  0.00  0.00   0.003   0.000   24.6    59   16.0   24.9  10.70  .0730    115    1    100.0    5 
16/08/17  19:40   17.4   17.5   17.4    84   14.7   7.0     S   0.58   9.0     S   17.4   17.7   17.7  1016.8  0.00  0.00   0.003   0.000   24.6    59   16.0   24.9  10.70  .0730    117    1    100.0    5 
16/08/17  19:45   17.4   17.4   17.4    84   14.7   7.0     S   0.58  10.0     S   17.3   17.7   17.6  1016.9  0.00  0.00   0.003   0.000   24.6    59   16.1   24.9  10.70  .0730    117    1    100.0    5 
16/08/17  19:50   17.4   17.4   17.4    84   14.7   8.0   SSE   0.67  10.0     S   16.9   17.7   17.2  1016.8  0.00  0.00   0.003   0.000   24.7    59   16.1   25.1  10.69  .0730    117    1    100.0    5 
16/08/17  19:55   17.6   17.6   17.4    85   15.0   8.0   SSE   0.67  11.0   SSE   17.1   17.9   17.4  1016.7  0.00  0.00   0.003   0.000   24.7    59   16.1   25.1  10.69  .0729    117    1    100.0    5 
16/08/17  20:00   17.5   17.6   17.5    85   14.9   8.0   SSE   0.67  11.0   SSE   17.1   17.8   17.4  1016.7  0.00  0.00   0.003   0.000   24.7    59   16.1   25.1  10.69  .0729    117    1    100.0    5 
16/08/17  20:05   17.6   17.6   17.6    85   15.0   8.0   SSE   0.67  10.0   SSE   17.1   17.9   17.4  1016.8  0.00  0.00   0.003   0.000   24.7    59   16.2   25.1  10.69  .0729    117    1    100.0    5 
16/08/17  20:10   17.6   17.6   17.6    85   15.0   8.0   SSE   0.67  10.0   SSE   17.1   17.9   17.4  1016.7  0.00  0.00   0.003   0.000   24.7    59   16.2   25.1  10.69  .0729    117    1    100.0    5 
16/08/17  20:15   17.5   17.6   17.5    85   14.9   7.0   SSE   0.58   9.0    SE   17.5   17.8   17.8  1016.6  0.00  0.00   0.003   0.000   24.7    58   15.9   25.1  10.49  .0729    117    1    100.0    5 
16/08/17  20:20   17.6   17.6   17.5    85   15.0   8.0   SSE   0.67  10.0   SSE   17.1   17.9   17.4  1016.5  0.00  0.00   0.003   0.000   24.7    58   15.9   25.1  10.49  .0729    117    1    100.0    5 
16/08/17  20:25   17.6   17.6   17.6    84   14.8   8.0   SSE   0.67  10.0   SSE   17.1   17.8   17.4  1016.5  0.00  0.00   0.003   0.000   24.7    58   15.9   25.1  10.49  .0729    117    1    100.0    5 
16/08/17  20:30   17.6   17.6   17.5    85   15.0   8.0   SSE   0.67  10.0   SSE   17.1   17.9   17.4  1016.5  0.00  0.00   0.003   0.000   24.7    58   15.8   25.0  10.49  .0730    117    1    100.0    5 
16/08/17  20:35   17.5   17.6   17.5    84   14.8   9.0   SSE   0.75  11.0   SSE   16.6   17.8   16.8  1016.5  0.00  0.00   0.003   0.000   24.7    58   15.8   25.0  10.49  .0730    117    1    100.0    5 
16/08/17  20:40   17.5   17.6   17.5    84   14.8   9.0   SSE   0.75  11.0   SSE   16.6   17.8   16.8  1016.6  0.00  0.00   0.003   0.000   24.7    58   15.9   25.1  10.49  .0729    117    1    100.0    5 
16/08/17  20:45   17.5   17.5   17.5    84   14.8   9.0   SSE   0.75  11.0   SSE   16.6   17.8   16.8  1016.6  0.00  0.00   0.003   0.000   24.7    58   15.9   25.1  10.49  .0729    117    1    100.0    5 
16/08/17  20:50   17.6   17.6   17.5    84   14.8   8.0   SSE   0.67  11.0   SSE   17.1   17.8   17.4  1016.6  0.00  0.00   0.003   0.000   24.7    58   15.9   25.1  10.49  .0729    117    1    100.0    5 
16/08/17  20:55   17.6   17.6   17.6    83   14.6   8.0   SSE   0.67  10.0   SSE   17.1   17.8   17.4  1016.5  0.00  0.00   0.003   0.000   24.7    58   15.8   25.0  10.49  .0730    116    1    100.0    5 
16/08/17  21:00   17.6   17.6   17.6    83   14.7   9.0   SSE   0.75  11.0   SSE   16.7   17.9   16.9  1016.4  0.00  0.00   0.003   0.000   24.7    58   15.8   25.0  10.49  .0729    117    1    100.0    5 
16/08/17  21:05   17.7   17.7   17.6    83   14.7   9.0   SSE   0.75  10.0   SSE   16.8   17.9   17.1  1016.2  0.00  0.00   0.002   0.000   24.7    58   15.8   25.0  10.49  .0729    116    1    100.0    5 
16/08/17  21:10   17.8   17.8   17.7    83   14.9   9.0   SSE   0.75  11.0   SSE   16.9   18.1   17.2  1016.2  0.00  0.00   0.002   0.000   24.7    57   15.6   24.9  10.29  .0730    117    1    100.0    5 
16/08/17  21:15   17.8   17.8   17.8    83   14.9  10.0   SSE   0.83  13.0    SE   16.4   18.1   16.8  1016.1  0.00  0.00   0.002   0.000   24.6    57   15.5   24.9  10.30  .0730    117    1    100.0    5 
16/08/17  21:20   17.8   17.8   17.7    83   14.9  11.0    SE   0.92  14.0    SE   16.1   18.1   16.4  1016.1  0.00  0.00   0.002   0.000   24.6    57   15.5   24.9  10.30  .0730    117    1    100.0    5 
16/08/17  21:25   17.7   17.8   17.7    83   14.8  10.0    SE   0.83  14.0    SE   16.4   18.0   16.7  1016.2  0.00  0.00   0.002   0.000   24.6    57   15.5   24.8  10.30  .0730    117    1    100.0    5 
16/08/17  21:30   17.8   17.8   17.7    84   15.0  10.0   SSE   0.83  13.0    SE   16.4   18.1   16.8  1016.2  0.00  0.00   0.002   0.000   24.4    57   15.4   24.7  10.31  .0730    117    1    100.0    5 
16/08/17  21:35   17.7   17.8   17.7    83   14.7  10.0    SE   0.83  14.0    SE   16.3   17.9   16.6  1016.1  0.00  0.00   0.002   0.000   24.4    57   15.4   24.7  10.31  .0730    117    1    100.0    5 
16/08/17  21:40   17.6   17.7   17.6    83   14.7  12.0    SE   1.00  14.0    SE   15.6   17.9   15.8  1015.9  0.00  0.00   0.003   0.000   24.4    57   15.3   24.7  10.31  .0730    117    1    100.0    5 
16/08/17  21:45   17.6   17.6   17.6    82   14.4  11.0    SE   0.92  14.0    SE   15.8   17.8   16.1  1015.7  0.00  0.00   0.003   0.000   24.3    57   15.2   24.6  10.32  .0730    117    1    100.0    5 
16/08/17  21:50   17.7   17.7   17.6    82   14.6  12.0    SE   1.00  14.0    SE   15.6   17.9   15.9  1015.6  0.00  0.00   0.002   0.000   24.2    57   15.2   24.5  10.33  .0731    117    1    100.0    5 
16/08/17  21:55   17.7   17.7   17.7    81   14.4  13.0    SE   1.08  15.0    SE   15.3   17.9   15.6  1015.6  0.00  0.00   0.002   0.000   24.2    56   14.8   24.4  10.23  .0731    117    1    100.0    5 
16/08/17  22:00   17.8   17.8   17.7    82   14.7  13.0    SE   1.08  17.0    SE   15.4   18.1   15.7  1015.5  0.00  0.00   0.002   0.000   24.2    57   15.1   24.5  10.33  .0731    116    1    100.0    5 
16/08/17  22:05   17.7   17.8   17.7    82   14.6  14.0    SE   1.17  17.0    SE   15.2   18.0   15.4  1015.4  0.00  0.00   0.002   0.000   24.1    57   15.0   24.4  10.34  .0731    117    1    100.0    5 
16/08/17  22:10   17.8   17.8   17.7    83   14.9  14.0    SE   1.17  17.0    SE   15.3   18.2   15.6  1015.3  0.00  0.00   0.002   0.000   24.0    57   15.0   24.3  10.34  .0731    117    1    100.0    5 
16/08/17  22:15   17.8   17.9   17.8    83   14.9  14.0    SE   1.17  17.0    SE   15.2   18.1   15.6  1015.1  0.00  0.00   0.002   0.000   23.9    57   14.9   24.3  10.35  .0731    116    1    100.0    5 
16/08/17  22:20   17.8   17.8   17.8    83   14.9  14.0    SE   1.17  17.0    SE   15.3   18.2   15.6  1015.2  0.00  0.00   0.002   0.000   24.0    57   15.0   24.3  10.34  .0731    116    1    100.0    5 
16/08/17  22:25   17.8   17.8   17.8    83   14.9  13.0    SE   1.08  17.0    SE   15.5   18.2   15.8  1015.0  0.00  0.00   0.002   0.000   24.0    57   15.0   24.3  10.34  .0731    116    1    100.0    5 
16/08/17  22:30   17.9   17.9   17.8    84   15.2  13.0    SE   1.08  17.0    SE   15.7   18.3   16.0  1014.9  0.00  0.00   0.001   0.000   24.1    57   15.0   24.4  10.34  .0731    116    1    100.0    5 
16/08/17  22:35   17.9   17.9   17.9    84   15.1  14.0    SE   1.17  18.0    SE   15.3   18.2   15.7  1014.9  0.00  0.00   0.002   0.000   24.1    57   15.0   24.4  10.34  .0731    117    1    100.0    5 
16/08/17  22:40   17.9   17.9   17.9    85   15.3  13.0    SE   1.08  18.0    SE   15.6   18.2   15.9  1015.0  0.00  0.00   0.002   0.000   24.1    57   15.1   24.4  10.33  .0730    117    1    100.0    5 
16/08/17  22:45   18.0   18.0   17.9    86   15.6  12.0    SE   1.00  15.0   SSE   16.0   18.4   16.4  1014.9  0.00  0.00   0.001   0.000   24.1    57   15.1   24.4  10.33  .0730    117    1    100.0    5 
16/08/17  22:50   17.9   18.0   17.9    85   15.3  12.0    SE   1.00  16.0   SSE   15.8   18.2   16.2  1015.0  0.00  0.00   0.002   0.000   24.1    57   15.1   24.4  10.33  .0730    117    1    100.0    5 
16/08/17  22:55   17.8   17.9   17.8    84   15.0  12.0   SSE   1.00  15.0   SSE   15.7   18.1   16.1  1014.9  0.00  0.00   0.002   0.000   24.2    58   15.4   24.5  10.53  .0730    117    1    100.0    5 
16/08/17  23:00   17.9   17.9   17.8    83   15.0  12.0    SE   1.00  16.0    SE   15.8   18.2   16.2  1014.8  0.00  0.00   0.002   0.000   24.2    57   15.1   24.5  10.33  .0730    117    1    100.0    5 
16/08/17  23:05   18.0   18.0   17.9    82   14.9  13.0    SE   1.08  16.0    SE   15.7   18.3   16.1  1014.6  0.00  0.00   0.001   0.000   24.2    57   15.1   24.5  10.33  .0730    116    1    100.0    5 
16/08/17  23:10   18.2   18.2   18.0    82   15.0  14.0    SE   1.17  16.0    SE   15.7   18.6   16.1  1014.4  0.00  0.00   0.001   0.000   24.2    57   15.2   24.5  10.33  .0730    117    1    100.0    5 
16/08/17  23:15   18.2   18.2   18.2    82   15.1  15.0    SE   1.25  18.0    SE   15.6   18.6   15.9  1014.3  0.00  0.00   0.000   0.000   24.2    57   15.1   24.5  10.33  .0730    117    1    100.0    5 
16/08/17  23:20   18.3   18.3   18.2    83   15.3  14.0    SE   1.17  16.0    SE   15.8   18.7   16.2  1014.3  0.00  0.00   0.000   0.000   24.2    57   15.2   24.5  10.33  .0730    116    1    100.0    5 
16/08/17  23:25   18.3   18.3   18.3    83   15.4  13.0    SE   1.08  17.0    SE   16.1   18.8   16.6  1014.3  0.00  0.00   0.000   0.000   24.2    57   15.1   24.5  10.33  .0730    117    1    100.0    5 
16/08/17  23:30   18.3   18.3   18.3    83   15.3  14.0    SE   1.17  17.0    SE   15.8   18.7   16.2  1014.3  0.00  0.00   0.000   0.000   24.2    57   15.1   24.5  10.33  .0730    117    1    100.0    5 
16/08/17  23:35   18.4   18.4   18.3    83   15.4  13.0   SSE   1.08  16.0   SSE   16.2   18.8   16.6  1014.3  0.00  0.00   0.000   0.000   24.2    57   15.2   24.5  10.33  .0730    116    1    100.0    5 
16/08/17  23:40   18.4   18.5   18.4    84   15.7  14.0   SSE   1.17  18.0   SSE   16.0   18.9   16.4  1014.2  0.00  0.00   0.000   0.000   24.2    57   15.2   24.5  10.33  .0730    116    1    100.0    5 
16/08/17  23:45   18.5   18.5   18.4    83   15.6  14.0   SSE   1.17  17.0   SSE   16.1   18.9   16.5  1014.2  0.00  0.00   0.000   0.001   24.2    57   15.1   24.5  10.33  .0730    116    1    100.0    5 
16/08/17  23:50   18.5   18.5   18.4    83   15.6  15.0   SSE   1.25  18.0   SSE   15.9   18.9   16.3  1014.1  0.00  0.00   0.000   0.001   24.2    57   15.1   24.5  10.33  .0730    117    1    100.0    5 
16/08/17  23:55   18.5   18.5   18.5    82   15.4  16.0   SSE   1.33  18.0   SSE   15.7   18.9   16.1  1014.1  0.00  0.00   0.000   0.001   24.2    57   15.1   24.5  10.33  .0730    117    1    100.0    5 
17/08/17  00:00   18.6   18.6   18.5    82   15.4  16.0   SSE   1.33  18.0   SSE   15.7   19.0   16.2  1014.0  0.00  0.00   0.000   0.001   24.2    57   15.1   24.5  10.33  .0730    117    1    100.0    5 
17/08/17   0:05   18.6   18.6   18.6    82   15.4  17.0   SSE   1.42  20.0   SSE   15.6   19.0   16.0  1013.9  0.00  0.00   0.000   0.001   24.2    57   15.1   24.5  10.33  .0729    116    1    100.0    5 
17/08/17   0:10   18.6   18.7   18.6    82   15.5  16.0   SSE   1.33  19.0   SSE   15.8   19.1   16.3  1013.9  0.00  0.00   0.000   0.001   24.2    57   15.1   24.5  10.33  .0729    117    1    100.0    5 
17/08/17   0:15   18.6   18.6   18.6    83   15.7  16.0   SSE   1.33  21.0   SSE   15.8   19.1   16.3  1014.0  0.00  0.00   0.000   0.001   24.2    57   15.1   24.5  10.33  .0730    116    1    100.0    5 
17/08/17   0:20   18.4   18.6   18.4    84   15.7  18.0     S   1.50  23.0   SSE   15.3   18.9   15.7  1014.1  0.00  0.00   0.000   0.000   24.2    57   15.1   24.5  10.33  .0730    117    1    100.0    5 
17/08/17   0:25   18.1   18.4   18.1    85   15.5  19.0     S   1.58  25.0     S   14.8   18.5   15.2  1014.0  0.00  0.00   0.001   0.000   24.2    57   15.1   24.5  10.33  .0730    117    1    100.0    5 
17/08/17   0:30   18.1   18.1   18.1    86   15.7  16.0     S   1.33  20.0     S   15.2   18.4   15.6  1014.0  0.00  0.00   0.001   0.000   24.1    57   15.1   24.4  10.33  .0730    117    1    100.0    5 
17/08/17   0:35   18.1   18.1   18.0    87   15.9  14.0     S   1.17  19.0     S   15.6   18.5   16.0  1013.9  0.00  0.00   0.001   0.000   24.1    58   15.3   24.5  10.53  .0729    117    1    100.0    5 
17/08/17   0:40   17.9   18.1   17.9    87   15.7  14.0   SSE   1.17  18.0     S   15.4   18.3   15.8  1013.9  0.00  0.00   0.001   0.000   24.2    58   15.4   24.5  10.53  .0729    118    1    100.0    5 
17/08/17   0:45   17.9   17.9   17.9    87   15.7  14.0   SSE   1.17  17.0     S   15.4   18.3   15.8  1013.8  0.00  0.00   0.001   0.000   24.1    58   15.3   24.5  10.53  .0729    117    1    100.0    5 
17/08/17   0:50   17.9   17.9   17.8    87   15.7  13.0     S   1.08  17.0   SSE   15.7   18.3   16.1  1013.8  0.00  0.00   0.001   0.000   24.1    58   15.3   24.5  10.53  .0729    117    1    100.0    5 
17/08/17   0:55   17.9   17.9   17.9    88   15.9   9.0   SSE   0.75  14.0     S   17.1   18.4   17.6  1013.8  0.02  0.14   0.001   0.000   24.1    58   15.3   24.5  10.53  .0729    117    1    100.0    5 
17/08/17   1:00   17.9   18.0   17.9    88   15.9   7.0     S   0.58   9.0   SSE   17.9   18.4   18.4  1013.7  0.00  0.11   0.001   0.000   24.1    58   15.3   24.5  10.53  .0729    116    1    100.0    5 
17/08/17   1:05   17.8   17.9   17.8    88   15.8  10.0   SSE   0.83  14.0   SSE   16.5   18.2   16.9  1013.5  0.00  0.06   0.002   0.000   24.1    58   15.3   24.5  10.53  .0729    116    1    100.0    5 
17/08/17   1:10   17.9   17.9   17.8    88   15.9  12.0   SSE   1.00  17.0     S   15.8   18.3   16.3  1013.5  0.00  0.04   0.002   0.000   24.1    58   15.3   24.5  10.53  .0729    117    1    100.0    5 
17/08/17   1:15   17.9   17.9   17.9    88   15.9  14.0     S   1.17  19.0   SSE   15.3   18.3   15.8  1013.4  0.00  0.00   0.002   0.000   24.1    58   15.3   24.5  10.53  .0729    117    1    100.0    5 
17/08/17   1:20   17.9   17.9   17.9    88   15.9  13.0     S   1.08  17.0     S   15.7   18.4   16.1  1013.3  0.00  0.00   0.001   0.000   24.1    58   15.3   24.4  10.54  .0729    115    1    100.0    5 
17/08/17   1:25   18.1   18.1   17.9    88   16.0  12.0     S   1.00  17.0     S   16.1   18.5   16.5  1013.2  0.00  0.00   0.001   0.000   24.1    58   15.3   24.5  10.53  .0729    117    1    100.0    5 
17/08/17   1:30   18.1   18.1   18.1    88   16.1  15.0     S   1.25  18.0   SSE   15.4   18.6   15.9  1013.1  0.00  0.00   0.001   0.000   24.1    58   15.3   24.5  10.53  .0729    117    1    100.0    5 
17/08/17   1:35   18.2   18.2   18.1    87   16.0  15.0     S   1.25  19.0   SSE   15.6   18.7   16.0  1013.0  0.00  0.00   0.000   0.000   24.1    58   15.3   24.5  10.53  .0729    117    1    100.0    5 
17/08/17   1:40   18.3   18.3   18.2    88   16.3  15.0     S   1.25  20.0     S   15.6   18.8   16.1  1012.8  0.00  0.00   0.000   0.000   24.1    58   15.3   24.4  10.54  .0729    117    1    100.0    5 
17/08/17   1:45   18.2   18.3   18.2    88   16.2  16.0     S   1.33  20.0     S   15.4   18.7   15.9  1012.7  0.00  0.00   0.000   0.000   24.1    58   15.3   24.4  10.54  .0729    118    1    100.0    5 
17/08/17   1:50   18.3   18.3   18.2    88   16.3  15.0     S   1.25  18.0   SSE   15.6   18.8   16.1  1012.6  0.00  0.00   0.000   0.000   24.1    58   15.3   24.4  10.54  .0729    116    1    100.0    5 
17/08/17   1:55   18.3   18.3   18.3    88   16.3  15.0     S   1.25  24.0     S   15.7   18.8   16.2  1012.6  0.00  0.00   0.000   0.000   24.1    58   15.3   24.4  10.54  .0729    117    1    100.0    5 
17/08/17   2:00   18.4   18.4   18.3    88   16.4  15.0     S   1.25  19.0     S   15.7   18.9   16.2  1012.5  0.00  0.00   0.000   0.000   24.1    58   15.3   24.4  10.54  .0729    117    1    100.0    5 
17/08/17   2:05   18.4   18.4   18.4    88   16.4  14.0     S   1.17  18.0   SSE   16.0   19.0   16.6  1012.4  0.00  0.00   0.000   0.000   24.1    58   15.3   24.4  10.54  .0729    117    1    100.0    5 
17/08/17   2:10   18.6   18.6   18.4    89   16.7  14.0     S   1.17  17.0     S   16.1   19.2   16.7  1012.4  0.00  0.00   0.000   0.001   24.1    58   15.3   24.4  10.54  .0729    117    1    100.0    5 
17/08/17   2:15   18.4   18.6   18.4    87   16.2  16.0     S   1.33  22.0   SSW   15.6   18.9   16.1  1012.2  0.00  0.00   0.000   0.000   24.1    58   15.3   24.4  10.54  .0728    116    1    100.0    5 
17/08/17   2:20   18.3   18.4   18.3    88   16.3  17.0   SSW   1.42  22.0   SSW   15.3   18.8   15.8  1012.3  0.00  0.00   0.000   0.000   24.1    58   15.3   24.4  10.54  .0728    117    1    100.0    5 
17/08/17   2:25   18.3   18.3   18.3    89   16.5  17.0   SSW   1.42  24.0   SSW   15.3   18.9   15.9  1012.3  0.00  0.00   0.000   0.000   24.1    59   15.5   24.5  10.74  .0728    117    1    100.0    5 
17/08/17   2:30   17.9   18.3   17.9    91   16.4  17.0    SW   1.42  21.0    SW   14.8   18.4   15.3  1012.2  0.00  0.00   0.002   0.000   24.1    59   15.5   24.5  10.74  .0728    116    1    100.0    5 
17/08/17   2:35   17.5   17.9   17.5    92   16.2  17.0    SW   1.42  21.0    SW   14.4   17.9   14.8  1012.2  0.00  0.00   0.003   0.000   24.0    59   15.5   24.4  10.74  .0728    117    1    100.0    5 
17/08/17   2:40   17.5   17.5   17.4    93   16.4  14.0    SW   1.17  19.0   SSW   14.9   17.9   15.4  1012.2  0.00  0.00   0.003   0.000   24.0    59   15.5   24.4  10.74  .0728    117    1    100.0    5 
17/08/17   2:45   17.2   17.5   17.2    93   16.1  10.0    SW   0.83  14.0    SW   15.8   17.7   16.3  1012.1  0.00  0.00   0.004   0.000   24.1    59   15.5   24.5  10.74  .0728    118    1    100.0    5 
17/08/17   2:50   17.1   17.2   17.1    93   16.0   9.0   SSW   0.75  12.0    SW   16.1   17.5   16.5  1011.8  0.00  0.00   0.004   0.000   24.0    59   15.5   24.4  10.74  .0728    117    1    100.0    5 
17/08/17   2:55   17.2   17.2   17.1    93   16.0   7.0   SSW   0.58   9.0   SSW   17.1   17.6   17.5  1011.8  0.00  0.00   0.004   0.000   24.0    59   15.5   24.4  10.74  .0728    117    1    100.0    5 
17/08/17   3:00   17.2   17.2   17.2    93   16.1   7.0   SSW   0.58   9.0   SSW   17.2   17.7   17.6  1011.8  0.00  0.00   0.004   0.000   24.0    59   15.5   24.4  10.74  .0728    117    1    100.0    5 
17/08/17   3:05   17.2   17.2   17.2    93   16.1   8.0   SSW   0.67  10.0   SSW   16.7   17.7   17.2  1011.8  0.00  0.00   0.004   0.000   23.9    59   15.4   24.4  10.75  .0728    116    1    100.0    5 
17/08/17   3:10   17.3   17.3   17.2    93   16.1   8.0   SSW   0.67   9.0   SSW   16.8   17.7   17.2  1011.8  0.00  0.00   0.004   0.000   23.9    59   15.4   24.4  10.75  .0728    117    1    100.0    5 
17/08/17   3:15   17.3   17.3   17.3    94   16.4   7.0   SSW   0.58   9.0   SSW   17.3   17.8   17.7  1011.8  0.00  0.00   0.003   0.000   24.0    59   15.5   24.4  10.74  .0728    116    1    100.0    5 
17/08/17   3:20   17.4   17.4   17.3    94   16.5   8.0   SSW   0.67  10.0   SSW   16.9   17.9   17.4  1011.9  0.00  0.00   0.003   0.000   23.9    59   15.4   24.4  10.75  .0728    116    1    100.0    5 
17/08/17   3:25   17.6   17.6   17.4    94   16.6   8.0   SSW   0.67  12.0   SSW   17.1   18.1   17.6  1011.8  0.00  0.00   0.003   0.000   23.9    59   15.4   24.4  10.75  .0728    116    1    100.0    5 
17/08/17   3:30   17.6   17.6   17.6    93   16.4   8.0   SSW   0.67  11.0   SSW   17.1   18.1   17.6  1011.7  0.01  0.00   0.003   0.000   23.9    59   15.4   24.4  10.75  .0728    115    1    100.0    5 
17/08/17   3:35   17.7   17.7   17.6    93   16.5   9.0   SSW   0.75  12.0   SSW   16.8   18.2   17.3  1011.6  0.00  0.00   0.002   0.000   23.9    59   15.4   24.4  10.75  .0728    117    1    100.0    5 
17/08/17   3:40   17.7   17.7   17.7    93   16.6   9.0   SSW   0.75  14.0   SSW   16.8   18.2   17.3  1011.5  0.00  0.00   0.002   0.000   23.9    59   15.4   24.4  10.75  .0728    116    1    100.0    5 
17/08/17   3:45   17.8   17.8   17.7    93   16.6  10.0   SSW   0.83  15.0   SSW   16.4   18.3   16.9  1011.4  0.00  0.00   0.002   0.000   23.9    59   15.4   24.3  10.75  .0728    117    1    100.0    5 
17/08/17   3:50   17.8   17.8   17.7    93   16.6  12.0   SSW   1.00  15.0   SSW   15.7   18.3   16.2  1011.3  0.01  0.04   0.002   0.000   23.9    60   15.7   24.4  10.95  .0728    118    1    100.0    5 
17/08/17   3:55   17.7   17.8   17.7    93   16.6  14.0   SSW   1.17  19.0   SSW   15.2   18.2   15.7  1011.2  0.00  0.04   0.002   0.000   23.9    60   15.7   24.4  10.95  .0728    117    1    100.0    5 
17/08/17   4:00   17.7   17.7   17.7    93   16.6  14.0   SSW   1.17  17.0     S   15.2   18.2   15.7  1011.1  0.01  0.05   0.002   0.000   23.9    60   15.7   24.4  10.95  .0728    116    1    100.0    5 
17/08/17   4:05   17.7   17.7   17.7    93   16.5  13.0   SSW   1.08  17.0   SSW   15.3   18.2   15.8  1011.1  0.00  0.05   0.002   0.000   23.9    60   15.7   24.4  10.95  .0728    117    1    100.0    5 
17/08/17   4:10   17.7   17.7   17.7    94   16.7  15.0   SSW   1.25  18.0   SSW   14.9   18.2   15.4  1011.1  0.00  0.05   0.002   0.000   23.9    60   15.7   24.4  10.95  .0728    116    1    100.0    5 
17/08/17   4:15   17.7   17.7   17.6    94   16.7  15.0   SSW   1.25  19.0   SSW   14.9   18.2   15.4  1011.0  0.00  0.00   0.002   0.000   23.8    60   15.6   24.3  10.95  .0728    116    1    100.0    5 
17/08/17   4:20   17.7   17.7   17.7    94   16.7  14.0   SSW   1.17  18.0   SSW   15.2   18.2   15.7  1010.9  0.00  0.00   0.002   0.000   23.8    60   15.6   24.3  10.95  .0728    117    1    100.0    5 
17/08/17   4:25   17.7   17.7   17.7    94   16.7  15.0   SSW   1.25  20.0   SSW   15.0   18.2   15.5  1010.8  0.01  0.00   0.002   0.000   23.8    60   15.6   24.3  10.95  .0728    117    1    100.0    5 
17/08/17   4:30   17.6   17.7   17.6    94   16.6  15.0   SSW   1.25  19.0    SW   14.9   18.1   15.4  1010.8  0.00  0.00   0.003   0.000   23.8    61   15.9   24.4  11.05  .0727    115    1    100.0    5 
17/08/17   4:35   17.7   17.7   17.6    95   16.9  14.0   SSW   1.17  19.0   SSW   15.2   18.3   15.7  1010.7  0.00  0.00   0.002   0.000   23.8    61   15.9   24.4  11.05  .0727    116    1    100.0    5 
17/08/17   4:40   17.7   17.7   17.7    95   16.9  15.0   SSW   1.25  18.0   SSW   14.9   18.2   15.5  1010.7  0.00  0.00   0.002   0.000   23.8    61   15.9   24.4  11.05  .0727    117    1    100.0    5 
17/08/17   4:45   17.7   17.7   17.7    95   16.9  15.0   SSW   1.25  18.0   SSW   15.0   18.3   15.6  1010.7  0.00  0.00   0.002   0.000   23.8    61   15.9   24.4  11.05  .0727    117    1    100.0    5 
17/08/17   4:50   17.8   17.8   17.8    95   17.0  16.0   SSW   1.33  20.0    SW   14.9   18.3   15.4  1010.7  0.01  0.00   0.002   0.000   23.8    61   15.8   24.3  11.06  .0728    116    1    100.0    5 
17/08/17   4:55   17.8   17.8   17.7    95   17.0  18.0   SSW   1.50  23.0   SSW   14.6   18.3   15.1  1010.8  0.00  0.00   0.002   0.000   23.8    61   15.8   24.3  11.06  .0728    117    1    100.0    5 
17/08/17   5:00   17.8   17.8   17.7    95   17.0  18.0   SSW   1.50  22.0   SSW   14.6   18.3   15.1  1010.6  0.00  0.00   0.002   0.000   23.8    61   15.8   24.3  11.06  .0727    116    1    100.0    5 
17/08/17   5:05   17.8   17.8   17.8    95   17.0  17.0   SSW   1.42  22.0   SSW   14.7   18.3   15.3  1010.6  0.00  0.00   0.002   0.000   23.8    61   15.8   24.3  11.06  .0727    117    1    100.0    5 
17/08/17   5:10   17.8   17.8   17.8    95   17.0  18.0   SSW   1.50  22.0   SSW   14.6   18.3   15.1  1010.7  0.00  0.00   0.002   0.000   23.8    62   16.1   24.3  11.25  .0727    117    1    100.0    5 
17/08/17   5:15   17.8   17.8   17.8    95   17.0  18.0   SSW   1.50  22.0   SSW   14.6   18.4   15.2  1010.6  0.00  0.00   0.002   0.000   23.8    62   16.1   24.3  11.25  .0727    117    1    100.0    5 
17/08/17   5:20   17.8   17.9   17.8    95   17.0  19.0   SSW   1.58  22.0   SSW   14.5   18.4   15.1  1010.4  0.00  0.00   0.002   0.000   23.8    62   16.1   24.3  11.25  .0727    117    1    100.0    5 
17/08/17   5:25   17.9   17.9   17.8    96   17.2  18.0   SSW   1.50  22.0   SSW   14.7   18.5   15.3  1010.3  0.00  0.00   0.002   0.000   23.8    62   16.1   24.3  11.25  .0727    117    1    100.0    5 
17/08/17   5:30   17.9   17.9   17.9    96   17.2  19.0   SSW   1.58  22.0    SW   14.6   18.5   15.2  1010.2  0.00  0.00   0.002   0.000   23.8    62   16.1   24.3  11.25  .0727    117    1    100.0    5 
17/08/17   5:35   17.9   17.9   17.9    96   17.3  18.0   SSW   1.50  22.0   SSW   14.7   18.6   15.3  1010.2  0.00  0.00   0.001   0.000   23.8    62   16.1   24.3  11.25  .0727    116    1    100.0    5 
17/08/17   5:40   18.0   18.0   17.9    96   17.4  19.0   SSW   1.58  22.0   SSW   14.7   18.6   15.3  1010.1  0.00  0.00   0.001   0.000   23.7    62   16.0   24.3  11.26  .0727    116    1    100.0    5 
17/08/17   5:45   18.0   18.0   17.9    96   17.4  19.0   SSW   1.58  23.0   SSW   14.7   18.6   15.3  1010.2  0.00  0.00   0.001   0.000   23.7    62   16.0   24.3  11.26  .0727    117    1    100.0    5 
17/08/17   5:50   18.0   18.1   18.0    96   17.4  19.0   SSW   1.58  22.0   SSW   14.7   18.6   15.3  1010.2  0.00  0.00   0.001   0.000   23.7    62   16.0   24.3  11.26  .0727    117    1    100.0    5 
17/08/17   5:55   18.1   18.1   18.0    96   17.4  17.0    SW   1.42  21.0    SW   15.1   18.7   15.7  1010.3  0.00  0.00   0.001   0.000   23.7    62   16.0   24.3  11.26  .0727    118    1    100.0    5 
17/08/17   6:00   18.0   18.1   18.0    96   17.4  18.0   SSW   1.50  22.0   SSW   14.8   18.6   15.4  1010.3  0.00  0.00   0.001   0.000   23.7    63   16.3   24.3  11.46  .0727    117    1    100.0    5 
17/08/17   6:05   18.0   18.0   18.0    96   17.4  17.0   SSW   1.42  22.0   SSW   14.9   18.6   15.6  1010.2  0.00  0.00   0.001   0.000   23.7    63   16.3   24.3  11.46  .0727    117    1    100.0    5 
17/08/17   6:10   18.0   18.1   18.0    96   17.4  17.0   SSW   1.42  21.0   SSW   14.9   18.6   15.6  1010.2  0.00  0.00   0.001   0.000   23.7    63   16.3   24.3  11.46  .0727    117    1    100.0    5 
17/08/17   6:15   18.0   18.0   17.9    96   17.4  18.0   SSW   1.50  22.0   SSW   14.8   18.6   15.4  1010.2  0.00  0.00   0.001   0.000   23.7    63   16.2   24.3  11.46  .0727    117    1    100.0    5 
17/08/17   6:20   18.0   18.0   18.0    96   17.4  16.0   SSW   1.33  19.0    SW   15.1   18.6   15.7  1010.1  0.00  0.00   0.001   0.000   23.7    63   16.3   24.3  11.46  .0727    116    1    100.0    5 
17/08/17   6:25   18.0   18.0   17.9    97   17.5  16.0   SSW   1.33  20.0   SSW   15.1   18.6   15.7  1010.3  0.00  0.00   0.001   0.000   23.7    63   16.2   24.3  11.46  .0727    117    1    100.0    5 
17/08/17   6:30   17.9   18.0   17.9    97   17.5  17.0   SSW   1.42  21.0    SW   14.9   18.6   15.5  1010.2  0.00  0.00   0.001   0.000   23.7    63   16.2   24.3  11.46  .0727    117    1    100.0    5 
17/08/17   6:35   17.9   17.9   17.9    97   17.5  18.0    SW   1.50  22.0   SSW   14.7   18.6   15.3  1010.3  0.00  0.00   0.001   0.000   23.6    63   16.2   24.2  11.46  .0727    117    1    100.0    5 
17/08/17   6:40   17.9   17.9   17.9    97   17.4  17.0    SW   1.42  21.0   SSW   14.8   18.5   15.4  1010.2  0.00  0.00   0.002   0.000   23.6    63   16.2   24.2  11.46  .0727    117    1    100.0    5 
17/08/17   6:45   17.9   17.9   17.9    97   17.4  18.0    SW   1.50  22.0   SSW   14.7   18.5   15.3  1010.3  0.00  0.00   0.002   0.000   23.6    63   16.2   24.2  11.46  .0727    117    1    100.0    5 
17/08/17   6:50   17.9   17.9   17.9    97   17.5  16.0   SSW   1.33  21.0    SW   15.1   18.6   15.7  1010.3  0.00  0.00   0.001   0.000   23.6    63   16.2   24.2  11.46  .0727    116    1    100.0    5 
17/08/17   6:55   18.0   18.0   17.9    97   17.5  16.0   SSW   1.33  20.0   SSW   15.1   18.6   15.7  1010.3  0.00  0.00   0.001   0.000   23.6    64   16.4   24.3  11.65  .0727    117    1    100.0    5 
17/08/17   7:00   18.0   18.0   17.9    97   17.5  15.0   SSW   1.25  19.0    SW   15.3   18.6   15.9  1010.2  0.00  0.00   0.001   0.000   23.6    64   16.4   24.3  11.65  .0727    118    1    100.0    5 
17/08/17   7:05   18.0   18.1   18.0    97   17.5  14.0    SW   1.17  18.0   SSW   15.5   18.6   16.1  1010.2  0.00  0.00   0.001   0.000   23.6    64   16.4   24.3  11.65  .0727    117    1    100.0    5 
17/08/17   7:10   18.2   18.2   18.0    97   17.7  14.0    SW   1.17  18.0    SW   15.7   18.8   16.3  1010.3  0.02  0.92   0.001   0.000   23.6    64   16.3   24.2  11.65  .0727    117    1    100.0    5 
17/08/17   7:15   18.2   18.2   18.1    97   17.7  14.0    SW   1.17  17.0    SW   15.8   18.9   16.4  1010.3  0.01  0.29   0.000   0.000   23.6    64   16.4   24.3  11.65  .0727    117    1    100.0    5 
17/08/17   7:20   18.2   18.2   18.2    97   17.7  15.0    SW   1.25  18.0    SW   15.6   18.9   16.2  1010.3  0.00  0.07   0.000   0.000   23.6    64   16.4   24.3  11.65  .0727    117    1    100.0    5 
17/08/17   7:25   18.2   18.2   18.2    98   17.9  16.0    SW   1.33  19.0    SW   15.4   18.9   16.1  1010.4  0.00  0.05   0.000   0.000   23.6    64   16.4   24.3  11.65  .0727    116    1    100.0    5 
17/08/17   7:30   18.2   18.2   18.2    98   17.8  16.0    SW   1.33  19.0    SW   15.3   18.8   16.0  1010.4  0.00  0.00   0.001   0.000   23.6    64   16.4   24.3  11.65  .0727    117    1    100.0    5 
17/08/17   7:35   18.2   18.2   18.1    98   17.8  15.0    SW   1.25  18.0    SW   15.5   18.8   16.2  1010.3  0.00  0.00   0.001   0.000   23.6    64   16.3   24.2  11.65  .0727    116    1    100.0    5 
17/08/17   7:40   18.2   18.2   18.1    98   17.8  14.0    SW   1.17  18.0    SW   15.7   18.8   16.3  1010.2  0.00  0.00   0.001   0.000   23.6    64   16.3   24.2  11.65  .0727    116    1    100.0    5 
17/08/17   7:45   18.1   18.2   18.1    98   17.8  14.0    SW   1.17  18.0    SW   15.6   18.8   16.3  1010.1  0.00  0.00   0.001   0.000   23.6    64   16.4   24.3  11.65  .0727    117    1    100.0    5 
17/08/17   7:50   18.2   18.2   18.1    98   17.8  14.0    SW   1.17  18.0    SW   15.7   18.8   16.3  1010.2  0.00  0.00   0.001   0.000   23.6    64   16.3   24.2  11.65  .0727    117    1    100.0    5 
17/08/17   7:55   18.1   18.2   18.1    97   17.6  15.0    SW   1.25  21.0    SW   15.4   18.8   16.1  1010.2  0.00  0.00   0.001   0.000   23.6    65   16.6   24.2  11.85  .0727    116    1    100.0    5 
17/08/17   8:00   18.1   18.2   18.1    97   17.6  15.0    SW   1.25  18.0    SW   15.4   18.7   16.0  1010.1  0.00  0.00   0.001   0.000   23.6    66   16.9   24.3  12.06  .0727    117    1    100.0    5 
17/08/17   8:05   18.2   18.2   18.1    97   17.7  15.0    SW   1.25  19.0    SW   15.5   18.8   16.2  1010.4  0.00  0.00   0.001   0.000   23.6    66   16.8   24.3  12.06  .0727    117    1    100.0    5 
17/08/17   8:10   18.2   18.2   18.1    97   17.7  17.0    SW   1.42  20.0    SW   15.2   18.8   15.8  1010.5  0.00  0.00   0.001   0.000   23.6    66   16.9   24.3  12.06  .0727    117    1    100.0    5 
17/08/17   8:15   18.1   18.2   18.1    97   17.6  17.0    SW   1.42  21.0    SW   15.1   18.8   15.8  1010.6  0.00  0.00   0.001   0.000   23.6    65   16.6   24.3  11.85  .0727    117    1    100.0    5 
17/08/17   8:20   18.2   18.2   18.2    97   17.7  18.0    SW   1.50  22.0   WSW   15.1   18.9   15.7  1010.7  0.00  0.00   0.000   0.000   23.7    65   16.7   24.4  11.85  .0727    116    1    100.0    5 
17/08/17   8:25   18.2   18.2   18.2    97   17.7  19.0    SW   1.58  23.0    SW   14.9   18.9   15.6  1010.6  0.00  0.00   0.000   0.000   23.7    65   16.7   24.4  11.85  .0727    117    1    100.0    5 
17/08/17   8:30   18.2   18.2   18.2    97   17.7  17.0    SW   1.42  21.0    SW   15.2   18.9   15.9  1010.6  0.00  0.00   0.000   0.000   23.8    65   16.8   24.5  11.85  .0727    117    1    100.0    5 
17/08/17   8:35   18.1   18.2   18.1    97   17.6  19.0    SW   1.58  23.0    SW   14.8   18.8   15.5  1010.7  0.00  0.00   0.001   0.000   23.8    65   16.8   24.5  11.85  .0727    116    1    100.0    5 
17/08/17   8:40   18.1   18.1   18.1    97   17.6  18.0    SW   1.50  22.0   WSW   14.9   18.8   15.6  1010.8  0.00  0.00   0.001   0.000   23.8    65   16.8   24.5  11.85  .0727    117    1    100.0    5 
17/08/17   8:45   18.0   18.1   18.0    97   17.5  20.0   WSW   1.67  24.0    SW   14.6   18.6   15.2  1010.7  0.00  0.00   0.001   0.000   23.8    65   16.9   24.6  11.85  .0726    117    1    100.0    5 
17/08/17   8:50   18.0   18.1   18.0    97   17.5  20.0   WSW   1.67  25.0    SW   14.6   18.6   15.2  1010.7  0.00  0.00   0.001   0.000   23.8    64   16.6   24.5  11.65  .0727    117    1    100.0    5 
17/08/17   8:55   18.0   18.1   18.0    97   17.5  21.0    SW   1.75  29.0   WSW   14.4   18.6   15.1  1010.7  0.00  0.00   0.001   0.000   23.9    64   16.7   24.6  11.65  .0727    116    1    100.0    5 
17/08/17   9:00   17.9   18.1   17.9    97   17.5  20.0    SW   1.67  24.0    SW   14.5   18.6   15.1  1010.8  0.00  0.00   0.001   0.000   23.9    64   16.7   24.6  11.65  .0726    117    1    100.0    5 
17/08/17   9:05   18.0   18.0   17.9    97   17.5  20.0    SW   1.67  25.0    SW   14.6   18.6   15.2  1010.8  0.00  0.00   0.001   0.000   23.9    64   16.7   24.6  11.65  .0726    118    1    100.0    5 
17/08/17   9:10   18.0   18.1   18.0    98   17.7  20.0    SW   1.67  24.0    SW   14.6   18.6   15.2  1010.8  0.00  0.00   0.001   0.000   24.0    64   16.8   24.7  11.65  .0726    117    1    100.0    5 
17/08/17   9:15   18.0   18.1   17.9    97   17.5  19.0    SW   1.58  24.0   WSW   14.7   18.6   15.3  1010.9  0.00  0.00   0.001   0.000   24.1    64   16.8   24.7  11.64  .0726    117    1    100.0    5 
17/08/17   9:20   17.9   18.1   17.9    97   17.5  20.0    SW   1.67  26.0    SW   14.5   18.6   15.1  1011.0  0.00  0.00   0.001   0.000   24.1    65   17.1   24.8  11.84  .0726    117    1    100.0    5 
17/08/17   9:25   17.9   18.0   17.9    97   17.5  21.0   WSW   1.75  26.0    SW   14.4   18.6   15.0  1011.1  0.00  0.00   0.001   0.000   24.2    64   16.9   24.8  11.64  .0726    116    1    100.0    5 
17/08/17   9:30   17.9   18.0   17.9    97   17.4  21.0   WSW   1.75  27.0   WSW   14.3   18.5   14.9  1011.2  0.00  0.00   0.002   0.000   24.2    64   16.9   24.8  11.64  .0726    117    1    100.0    5 
17/08/17   9:35   17.9   17.9   17.9    97   17.5  21.0   WSW   1.75  27.0   WSW   14.4   18.6   15.0  1011.2  0.00  0.00   0.001   0.000   24.2    64   16.9   24.8  11.64  .0726    117    1    100.0    5 
17/08/17   9:40   18.1   18.1   18.0    97   17.6  20.0   WSW   1.67  26.0   WSW   14.6   18.7   15.2  1011.3  0.00  0.00   0.001   0.000   24.2    64   17.0   24.8  11.64  .0726    116    1    100.0    5 
17/08/17   9:45   17.9   18.1   17.9    97   17.5  21.0   WSW   1.75  26.0   WSW   14.4   18.6   15.0  1011.2  0.00  0.00   0.001   0.000   24.3    65   17.3   24.9  11.84  .0725    117    1    100.0    5 
17/08/17   9:50   18.0   18.1   17.9    97   17.5  19.0   WSW   1.58  23.0   WSW   14.7   18.6   15.3  1011.1  0.00  0.00   0.001   0.000   24.3    65   17.3   24.9  11.84  .0725    117    1    100.0    5 
17/08/17   9:55   18.1   18.1   18.0    97   17.6  19.0   WSW   1.58  23.0   WSW   14.8   18.7   15.4  1011.3  0.00  0.00   0.001   0.000   24.3    64   17.0   24.9  11.64  .0726    117    1    100.0    5 
17/08/17  10:00   18.0   18.1   17.9    97   17.5  22.0   WSW   1.83  26.0   WSW   14.3   18.6   14.9  1011.3  0.00  0.00   0.001   0.000   24.3    64   17.1   24.9  11.63  .0726    117    1    100.0    5 
17/08/17  10:05   18.1   18.1   18.0    97   17.6  20.0   WSW   1.67  26.0   WSW   14.6   18.7   15.2  1011.4  0.00  0.00   0.001   0.000   24.3    64   17.1   24.9  11.63  .0726    117    1    100.0    5 
17/08/17  10:10   18.0   18.1   18.0    96   17.4  19.0   WSW   1.58  26.0   WSW   14.7   18.6   15.3  1011.4  0.00  0.00   0.001   0.000   24.3    64   17.1   24.9  11.63  .0726    118    1    100.0    5 
17/08/17  10:15   18.0   18.0   18.0    96   17.4  19.0   WSW   1.58  26.0   WSW   14.7   18.6   15.3  1011.5  0.00  0.00   0.001   0.000   24.3    64   17.0   24.9  11.64  .0726    117    1    100.0    5 
17/08/17  10:20   18.1   18.1   18.0    96   17.4  19.0   WSW   1.58  24.0    SW   14.8   18.7   15.4  1011.5  0.00  0.00   0.001   0.000   24.3    64   17.0   24.9  11.64  .0726    117    1    100.0    5 
17/08/17  10:25   18.1   18.1   18.1    96   17.4  18.0   WSW   1.50  23.0   WSW   14.9   18.7   15.5  1011.4  0.00  0.00   0.001   0.000   24.3    64   17.0   24.9  11.64  .0726    117    1    100.0    5 
17/08/17  10:30   18.1   18.1   18.1    96   17.4  21.0   WSW   1.75  26.0   WSW   14.5   18.7   15.1  1011.5  0.00  0.00   0.001   0.000   24.3    64   17.0   24.9  11.64  .0726    116    1    100.0    5 
85904